Time,TemperatureF,DewpointF,PressureIn,WindDirection,WindDirectionDegrees,WindSpeedMPH,WindSpeedGustMPH,Humidity,HourlyPrecipIn,Conditions,Clouds,dailyrainin,SoftwareType,DateUTC
2013-07-20 00:01:00,81.6,74.6,29.67,SSW,203,6.0,13.0,79,0.00,,,0.00,WUHU216DAVISVP2,2013-07-20 04:01:00,
2013-07-20 00:02:00,81.6,74.6,29.67,SSW,203,6.0,13.0,79,0.00,,,0.00,WUHU216DAVISVP2,2013-07-20 04:02:00,
2013-07-20 00:06:00,81.5,74.5,29.68,SE,137,4.0,11.0,79,0.00,,,0.00,WUHU216DAVISVP2,2013-07-20 04:06:00,
2013-07-20 00:07:00,81.5,74.5,29.68,SE,137,4.0,11.0,79,0.00,,,0.00,WUHU216DAVISVP2,2013-07-20 04:07:00,
2013-07-20 00:08:00,81.5,74.5,29.68,SW,234,2.0,11.0,79,0.00,,,0.00,WUHU216DAVISVP2,2013-07-20 04:08:00,
2013-07-20 00:10:00,81.5,74.5,29.68,SW,228,3.0,11.0,79,0.00,,,0.00,WUHU216DAVISVP2,2013-07-20 04:10:00,
2013-07-20 00:12:00,81.5,74.5,29.68,SSE,149,3.0,11.0,79,0.00,,,0.00,WUHU216DAVISVP2,2013-07-20 04:12:00,
2013-07-20 00:14:00,81.4,74.4,29.68,SSW,204,6.0,10.0,79,0.00,,,0.00,WUHU216DAVISVP2,2013-07-20 04:14:00,
2013-07-20 00:16:00,81.4,74.4,29.67,SSW,200,8.0,10.0,79,0.00,,,0.00,WUHU216DAVISVP2,2013-07-20 04:16:00,
2013-07-20 00:17:00,81.4,74.4,29.67,SSW,200,8.0,10.0,79,0.00,,,0.00,WUHU216DAVISVP2,2013-07-20 04:17:00,
2013-07-20 00:18:00,81.4,74.4,29.67,WSW,238,5.0,10.0,79,0.00,,,0.00,WUHU216DAVISVP2,2013-07-20 04:18:00,
2013-07-20 00:19:00,81.4,74.4,29.67,WSW,238,5.0,10.0,79,0.00,,,0.00,WUHU216DAVISVP2,2013-07-20 04:19:00,
2013-07-20 00:21:00,81.4,74.4,29.67,SW,229,4.0,10.0,79,0.00,,,0.00,WUHU216DAVISVP2,2013-07-20 04:21:00,
2013-07-20 00:22:00,81.4,74.4,29.67,SSW,209,5.0,12.0,79,0.00,,,0.00,WUHU216DAVISVP2,2013-07-20 04:22:00,
2013-07-20 00:24:00,81.3,74.3,29.67,SW,221,10.0,12.0,79,0.00,,,0.00,WUHU216DAVISVP2,2013-07-20 04:24:00,
2013-07-20 00:26:00,81.3,74.3,29.67,WSW,240,4.0,12.0,79,0.00,,,0.00,WUHU216DAVISVP2,2013-07-20 04:26:00,
2013-07-20 00:28:00,81.3,74.3,29.67,WSW,242,12.0,12.0,79,0.00,,,0.00,WUHU216DAVISVP2,2013-07-20 04:28:00,
2013-07-20 00:31:00,81.2,74.2,29.66,SW,215,4.0,12.0,79,0.00,,,0.00,WUHU216DAVISVP2,2013-07-20 04:31:00,
2013-07-20 00:32:00,81.2,74.2,29.66,SW,215,4.0,12.0,79,0.00,,,0.00,WUHU216DAVISVP2,2013-07-20 04:32:00,
2013-07-20 00:35:00,81.2,74.2,29.67,SW,225,3.0,12.0,79,0.00,,,0.00,WUHU216DAVISVP2,2013-07-20 04:35:00,
2013-07-20 00:37:00,81.2,74.2,29.66,SW,236,5.0,12.0,79,0.00,,,0.00,WUHU216DAVISVP2,2013-07-20 04:37:00,
2013-07-20 00:38:00,81.2,74.2,29.67,WSW,242,7.0,12.0,79,0.00,,,0.00,WUHU216DAVISVP2,2013-07-20 04:38:00,
2013-07-20 00:41:00,81.2,74.2,29.67,SW,227,6.0,12.0,79,0.00,,,0.00,WUHU216DAVISVP2,2013-07-20 04:41:00,
2013-07-20 00:42:00,81.2,74.2,29.67,SW,227,6.0,12.0,79,0.00,,,0.00,WUHU216DAVISVP2,2013-07-20 04:42:00,
2013-07-20 00:43:00,81.2,74.2,29.67,SSW,200,2.0,12.0,79,0.00,,,0.00,WUHU216DAVISVP2,2013-07-20 04:43:00,
2013-07-20 00:45:00,81.2,74.2,29.67,West,267,4.0,14.0,79,0.00,,,0.00,WUHU216DAVISVP2,2013-07-20 04:45:00,
2013-07-20 00:47:00,81.2,74.2,29.67,SSW,204,1.0,14.0,79,0.00,,,0.00,WUHU216DAVISVP2,2013-07-20 04:47:00,
2013-07-20 00:48:00,81.2,74.2,29.67,SSW,207,7.0,14.0,79,0.00,,,0.00,WUHU216DAVISVP2,2013-07-20 04:48:00,
2013-07-20 00:51:00,81.2,74.2,29.67,SW,223,1.0,14.0,79,0.00,,,0.00,WUHU216DAVISVP2,2013-07-20 04:51:00,
2013-07-20 00:52:00,81.2,74.2,29.67,SW,223,1.0,14.0,79,0.00,,,0.00,WUHU216DAVISVP2,2013-07-20 04:52:00,
2013-07-20 00:53:00,81.2,74.2,29.67,SW,229,11.0,14.0,79,0.00,,,0.00,WUHU216DAVISVP2,2013-07-20 04:53:00,
2013-07-20 00:54:00,81.2,74.2,29.66,SW,221,7.0,13.0,79,0.00,,,0.00,WUHU216DAVISVP2,2013-07-20 04:54:00,
2013-07-20 00:56:00,81.2,74.2,29.66,SW,223,1.0,13.0,79,0.00,,,0.00,WUHU216DAVISVP2,2013-07-20 04:56:00,
2013-07-20 00:57:00,81.2,74.2,29.66,SW,223,1.0,13.0,79,0.00,,,0.00,WUHU216DAVISVP2,2013-07-20 04:57:00,
2013-07-20 00:58:00,81.2,74.2,29.67,West,267,9.0,18.0,79,0.00,,,0.00,WUHU216DAVISVP2,2013-07-20 04:58:00,
2013-07-20 00:59:00,81.2,74.2,29.69,NW,318,14.0,22.0,79,0.00,,,0.00,WUHU216DAVISVP2,2013-07-20 04:59:00,
2013-07-20 01:01:00,80.9,71.6,29.69,NW,306,11.0,22.0,73,0.00,,,0.00,WUHU216DAVISVP2,2013-07-20 05:01:00,
2013-07-20 01:02:00,80.9,71.6,29.69,NW,306,11.0,22.0,73,0.00,,,0.00,WUHU216DAVISVP2,2013-07-20 05:02:00,
2013-07-20 01:03:00,80.4,70.8,29.69,WSW,247,7.0,22.0,72,0.00,,,0.00,WUHU216DAVISVP2,2013-07-20 05:03:00,
2013-07-20 01:05:00,80.0,70.4,29.69,NNW,328,11.0,22.0,72,0.00,,,0.00,WUHU216DAVISVP2,2013-07-20 05:05:00,
2013-07-20 01:08:00,79.4,69.8,29.68,West,279,9.0,22.0,72,0.00,,,0.00,WUHU216DAVISVP2,2013-07-20 05:08:00,
2013-07-20 01:09:00,79.2,69.6,29.69,WNW,288,9.0,21.0,72,0.00,,,0.00,WUHU216DAVISVP2,2013-07-20 05:09:00,
2013-07-20 01:13:00,78.9,69.3,29.69,WNW,285,12.0,21.0,72,0.00,,,0.00,WUHU216DAVISVP2,2013-07-20 05:13:00,
2013-07-20 01:15:00,78.2,69.0,29.69,West,279,6.0,20.0,73,0.00,,,0.00,WUHU216DAVISVP2,2013-07-20 05:15:00,
2013-07-20 01:17:00,77.9,69.1,29.69,WNW,297,0.0,20.0,74,0.00,,,0.00,WUHU216DAVISVP2,2013-07-20 05:17:00,
2013-07-20 01:18:00,77.9,69.1,29.69,WNW,297,0.0,20.0,74,0.00,,,0.00,WUHU216DAVISVP2,2013-07-20 05:18:00,
2013-07-20 01:19:00,77.6,69.2,29.69,NW,314,6.0,20.0,75,0.00,,,0.00,WUHU216DAVISVP2,2013-07-20 05:19:00,
2013-07-20 01:21:00,77.3,69.3,29.71,NNW,340,8.0,20.0,76,0.02,,,0.02,WUHU216DAVISVP2,2013-07-20 05:21:00,
2013-07-20 01:23:00,76.7,69.5,29.71,NNW,341,9.0,20.0,78,0.10,,,0.10,WUHU216DAVISVP2,2013-07-20 05:23:00,
2013-07-20 01:26:00,74.6,68.7,29.71,North,355,6.0,13.0,82,0.32,,,0.32,WUHU216DAVISVP2,2013-07-20 05:26:00,
2013-07-20 01:27:00,73.7,68.6,29.70,NNW,329,6.0,13.0,84,0.36,,,0.36,WUHU216DAVISVP2,2013-07-20 05:27:00,
2013-07-20 01:28:00,73.7,68.6,29.70,NNW,329,6.0,13.0,84,0.36,,,0.36,WUHU216DAVISVP2,2013-07-20 05:28:00,
2013-07-20 01:29:00,73.0,68.6,29.71,NW,307,14.0,16.0,86,0.41,,,0.41,WUHU216DAVISVP2,2013-07-20 05:29:00,
2013-07-20 01:31:00,72.3,68.2,29.71,WNW,289,4.0,18.0,87,0.48,,,0.48,WUHU216DAVISVP2,2013-07-20 05:31:00,
2013-07-20 01:32:00,71.8,67.7,29.68,NE,48,8.0,18.0,87,0.61,,,0.61,WUHU216DAVISVP2,2013-07-20 05:32:00,
2013-07-20 01:33:00,71.8,67.7,29.68,NE,48,8.0,18.0,87,0.61,,,0.61,WUHU216DAVISVP2,2013-07-20 05:33:00,
2013-07-20 01:34:00,71.3,67.2,29.68,NNW,348,7.0,18.0,87,0.62,,,0.62,WUHU216DAVISVP2,2013-07-20 05:34:00,
2013-07-20 01:36:00,71.1,67.7,29.68,NNW,328,11.0,21.0,89,0.62,,,0.62,WUHU216DAVISVP2,2013-07-20 05:36:00,
2013-07-20 01:38:00,71.2,67.8,29.67,NNW,337,5.0,21.0,89,0.62,,,0.62,WUHU216DAVISVP2,2013-07-20 05:38:00,
2013-07-20 01:40:00,71.2,68.1,29.68,West,263,9.0,21.0,90,0.64,,,0.64,WUHU216DAVISVP2,2013-07-20 05:40:00,
2013-07-20 01:44:00,71.3,68.5,29.70,NW,313,7.0,21.0,91,0.68,,,0.70,WUHU216DAVISVP2,2013-07-20 05:44:00,
2013-07-20 01:48:00,71.3,68.9,29.69,NNW,329,6.0,18.0,92,0.93,,,0.93,WUHU216DAVISVP2,2013-07-20 05:48:00,
2013-07-20 01:49:00,71.3,68.9,29.69,NNW,329,6.0,18.0,92,0.93,,,0.93,WUHU216DAVISVP2,2013-07-20 05:49:00,
2013-07-20 01:50:00,71.2,68.8,29.68,WNW,286,13.0,18.0,92,1.00,,,1.00,WUHU216DAVISVP2,2013-07-20 05:50:00,
2013-07-20 01:54:00,71.4,68.6,29.70,NNW,327,15.0,31.0,91,1.12,,,1.13,WUHU216DAVISVP2,2013-07-20 05:54:00,
2013-07-20 01:55:00,71.4,68.6,29.70,NNW,327,15.0,31.0,91,1.12,,,1.13,WUHU216DAVISVP2,2013-07-20 05:55:00,
2013-07-20 01:56:00,71.6,68.2,29.70,NW,312,16.0,31.0,89,1.20,,,1.20,WUHU216DAVISVP2,2013-07-20 05:56:00,
2013-07-20 01:58:00,71.5,68.1,29.71,NW,319,13.0,31.0,89,1.26,,,1.28,WUHU216DAVISVP2,2013-07-20 05:58:00,
2013-07-20 02:00:00,71.2,67.8,29.70,NW,319,6.0,31.0,89,1.33,,,1.33,WUHU216DAVISVP2,2013-07-20 06:00:00,
2013-07-20 02:02:00,71.0,67.9,29.71,West,262,8.0,28.0,90,1.40,,,1.42,WUHU216DAVISVP2,2013-07-20 06:02:00,
2013-07-20 02:04:00,70.7,67.9,29.71,WNW,295,3.0,22.0,91,1.45,,,1.45,WUHU216DAVISVP2,2013-07-20 06:04:00,
2013-07-20 02:05:00,70.7,67.9,29.71,WNW,295,3.0,22.0,91,1.45,,,1.45,WUHU216DAVISVP2,2013-07-20 06:05:00,
2013-07-20 02:07:00,70.4,67.6,29.71,NNW,336,4.0,22.0,91,1.56,,,1.56,WUHU216DAVISVP2,2013-07-20 06:07:00,
2013-07-20 02:10:00,70.2,67.4,29.69,WNW,286,7.0,15.0,91,1.63,,,1.63,WUHU216DAVISVP2,2013-07-20 06:10:00,
2013-07-20 02:13:00,69.9,67.5,29.69,WNW,291,1.0,18.0,92,1.66,,,1.66,WUHU216DAVISVP2,2013-07-20 06:13:00,
2013-07-20 02:14:00,69.9,67.5,29.69,West,279,5.0,18.0,92,1.68,,,1.68,WUHU216DAVISVP2,2013-07-20 06:14:00,
2013-07-20 02:15:00,69.9,67.5,29.69,West,279,5.0,18.0,92,1.68,,,1.68,WUHU216DAVISVP2,2013-07-20 06:15:00,
2013-07-20 02:16:00,69.8,67.4,29.69,West,262,8.0,18.0,92,1.69,,,1.69,WUHU216DAVISVP2,2013-07-20 06:16:00,
2013-07-20 02:18:00,69.8,67.4,29.69,WNW,284,4.0,18.0,92,1.73,,,1.73,WUHU216DAVISVP2,2013-07-20 06:18:00,
2013-07-20 02:20:00,69.8,67.4,29.69,WNW,284,7.0,18.0,92,1.76,,,1.77,WUHU216DAVISVP2,2013-07-20 06:20:00,
2013-07-20 02:21:00,69.7,67.3,29.69,WNW,287,7.0,18.0,92,1.74,,,1.78,WUHU216DAVISVP2,2013-07-20 06:21:00,
2013-07-20 02:23:00,69.7,67.3,29.68,WNW,294,7.0,14.0,92,1.67,,,1.80,WUHU216DAVISVP2,2013-07-20 06:23:00,
2013-07-20 02:25:00,69.7,67.6,29.69,WSW,241,9.0,14.0,93,1.55,,,1.84,WUHU216DAVISVP2,2013-07-20 06:25:00,
2013-07-20 02:29:00,69.6,67.5,29.68,NW,306,1.0,13.0,93,1.49,,,1.90,WUHU216DAVISVP2,2013-07-20 06:29:00,
2013-07-20 02:30:00,69.6,67.5,29.68,NW,306,1.0,13.0,93,1.49,,,1.90,WUHU216DAVISVP2,2013-07-20 06:30:00,
2013-07-20 02:32:00,69.6,67.5,29.68,WNW,283,6.0,10.0,93,1.31,,,1.92,WUHU216DAVISVP2,2013-07-20 06:32:00,
2013-07-20 02:35:00,69.5,67.7,29.69,NW,309,4.0,9.0,94,1.30,,,1.92,WUHU216DAVISVP2,2013-07-20 06:35:00,
2013-07-20 02:37:00,69.6,67.8,29.69,WNW,293,6.0,13.0,94,1.30,,,1.92,WUHU216DAVISVP2,2013-07-20 06:37:00,
2013-07-20 02:38:00,69.6,67.8,29.69,NNW,347,9.0,14.0,94,1.29,,,1.92,WUHU216DAVISVP2,2013-07-20 06:38:00,
2013-07-20 02:41:00,69.6,67.8,29.69,NNW,344,11.0,16.0,94,1.28,,,1.92,WUHU216DAVISVP2,2013-07-20 06:41:00,
2013-07-20 02:42:00,69.9,67.8,29.70,NW,325,13.0,16.0,93,1.27,,,1.94,WUHU216DAVISVP2,2013-07-20 06:42:00,
2013-07-20 02:44:00,70.1,68.0,29.70,NW,323,15.0,24.0,93,1.24,,,1.96,WUHU216DAVISVP2,2013-07-20 06:44:00,
2013-07-20 02:46:00,70.2,68.1,29.72,NNW,344,13.0,24.0,93,1.18,,,1.98,WUHU216DAVISVP2,2013-07-20 06:46:00,
2013-07-20 02:47:00,70.1,68.0,29.72,NNW,346,13.0,24.0,93,1.10,,,2.01,WUHU216DAVISVP2,2013-07-20 06:47:00,
2013-07-20 02:49:00,70.0,67.9,29.73,NW,319,10.0,24.0,93,1.04,,,2.03,WUHU216DAVISVP2,2013-07-20 06:49:00,
2013-07-20 02:51:00,69.9,67.8,29.72,NNW,342,11.0,24.0,93,1.03,,,2.08,WUHU216DAVISVP2,2013-07-20 06:51:00,
2013-07-20 02:53:00,69.9,68.1,29.72,WNW,291,12.0,24.0,94,1.00,,,2.12,WUHU216DAVISVP2,2013-07-20 06:53:00,
2013-07-20 02:56:00,70.0,68.2,29.72,WSW,252,7.0,24.0,94,0.97,,,2.14,WUHU216DAVISVP2,2013-07-20 06:56:00,
2013-07-20 02:58:00,70.0,68.2,29.72,WSW,258,7.0,20.0,94,0.96,,,2.22,WUHU216DAVISVP2,2013-07-20 06:58:00,
2013-07-20 02:59:00,70.0,68.2,29.70,West,263,5.0,16.0,94,0.94,,,2.26,WUHU216DAVISVP2,2013-07-20 06:59:00,
2013-07-20 03:01:00,70.0,68.2,29.70,West,271,7.0,14.0,94,0.92,,,2.30,WUHU216DAVISVP2,2013-07-20 07:01:00,
2013-07-20 03:03:00,69.9,68.1,29.70,West,280,5.0,14.0,94,0.87,,,2.31,WUHU216DAVISVP2,2013-07-20 07:03:00,
2013-07-20 03:05:00,69.9,68.1,29.70,West,277,8.0,14.0,94,0.83,,,2.32,WUHU216DAVISVP2,2013-07-20 07:05:00,
2013-07-20 03:06:00,69.8,68.0,29.70,West,275,10.0,12.0,94,0.79,,,2.33,WUHU216DAVISVP2,2013-07-20 07:06:00,
2013-07-20 03:07:00,69.8,68.0,29.70,West,275,10.0,12.0,94,0.79,,,2.33,WUHU216DAVISVP2,2013-07-20 07:07:00,
2013-07-20 03:09:00,69.8,68.0,29.71,SW,230,5.0,12.0,94,0.71,,,2.35,WUHU216DAVISVP2,2013-07-20 07:09:00,
2013-07-20 03:12:00,69.9,68.1,29.71,SW,229,6.0,13.0,94,0.71,,,2.36,WUHU216DAVISVP2,2013-07-20 07:12:00,
2013-07-20 03:13:00,69.9,68.1,29.70,West,260,7.0,13.0,94,0.69,,,2.36,WUHU216DAVISVP2,2013-07-20 07:13:00,
2013-07-20 03:15:00,69.9,68.1,29.69,SW,229,2.0,13.0,94,0.68,,,2.37,WUHU216DAVISVP2,2013-07-20 07:15:00,
2013-07-20 03:17:00,69.9,68.1,29.68,South,183,5.0,13.0,94,0.66,,,2.37,WUHU216DAVISVP2,2013-07-20 07:17:00,
2013-07-20 03:20:00,69.9,68.1,29.66,West,261,4.0,13.0,94,0.60,,,2.37,WUHU216DAVISVP2,2013-07-20 07:20:00,
2013-07-20 03:21:00,69.9,68.1,29.66,WSW,250,2.0,13.0,94,0.58,,,2.37,WUHU216DAVISVP2,2013-07-20 07:21:00,
2013-07-20 03:22:00,69.9,68.1,29.66,WSW,250,2.0,13.0,94,0.58,,,2.37,WUHU216DAVISVP2,2013-07-20 07:22:00,
2013-07-20 03:23:00,69.9,68.4,29.66,West,280,4.0,9.0,95,0.57,,,2.37,WUHU216DAVISVP2,2013-07-20 07:23:00,
2013-07-20 03:25:00,69.9,68.4,29.65,West,274,2.0,9.0,95,0.54,,,2.37,WUHU216DAVISVP2,2013-07-20 07:25:00,
2013-07-20 03:27:00,69.9,68.4,29.65,West,277,4.0,9.0,95,0.53,,,2.37,WUHU216DAVISVP2,2013-07-20 07:27:00,
2013-07-20 03:28:00,69.9,68.4,29.64,West,275,3.0,9.0,95,0.48,,,2.37,WUHU216DAVISVP2,2013-07-20 07:28:00,
2013-07-20 03:32:00,69.9,68.4,29.64,NW,312,0.0,7.0,95,0.45,,,2.37,WUHU216DAVISVP2,2013-07-20 07:32:00,
2013-07-20 03:34:00,69.9,68.4,29.64,West,260,5.0,6.0,95,0.45,,,2.37,WUHU216DAVISVP2,2013-07-20 07:34:00,
2013-07-20 03:36:00,69.9,68.4,29.64,SW,227,0.0,6.0,95,0.45,,,2.37,WUHU216DAVISVP2,2013-07-20 07:36:00,
2013-07-20 03:37:00,69.9,68.4,29.64,SW,227,0.0,6.0,95,0.45,,,2.37,WUHU216DAVISVP2,2013-07-20 07:37:00,
2013-07-20 03:38:00,69.9,68.4,29.64,SW,227,0.0,6.0,95,0.45,,,2.37,WUHU216DAVISVP2,2013-07-20 07:38:00,
2013-07-20 03:42:00,70.0,68.5,29.64,SW,236,0.0,6.0,95,0.43,,,2.37,WUHU216DAVISVP2,2013-07-20 07:42:00,
2013-07-20 03:44:00,70.0,68.5,29.64,SW,217,0.0,6.0,95,0.41,,,2.37,WUHU216DAVISVP2,2013-07-20 07:44:00,
2013-07-20 03:45:00,70.0,68.5,29.64,West,281,0.0,5.0,95,0.39,,,2.37,WUHU216DAVISVP2,2013-07-20 07:45:00,
2013-07-20 03:48:00,70.0,68.5,29.65,NW,317,4.0,5.0,95,0.36,,,2.37,WUHU216DAVISVP2,2013-07-20 07:48:00,
2013-07-20 03:49:00,70.1,68.6,29.64,WNW,297,4.0,5.0,95,0.33,,,2.37,WUHU216DAVISVP2,2013-07-20 07:49:00,
2013-07-20 03:51:00,70.1,68.6,29.65,West,276,1.0,6.0,95,0.29,,,2.37,WUHU216DAVISVP2,2013-07-20 07:51:00,
2013-07-20 03:53:00,70.1,68.6,29.65,WSW,240,2.0,6.0,95,0.27,,,2.38,WUHU216DAVISVP2,2013-07-20 07:53:00,
2013-07-20 03:58:00,70.3,68.8,29.65,SW,236,3.0,6.0,95,0.18,,,2.38,WUHU216DAVISVP2,2013-07-20 07:58:00,
2013-07-20 03:59:00,70.3,68.8,29.65,WSW,252,1.0,6.0,95,0.13,,,2.38,WUHU216DAVISVP2,2013-07-20 07:59:00,
2013-07-20 04:01:00,70.4,68.9,29.65,WSW,258,0.0,8.0,95,0.08,,,2.38,WUHU216DAVISVP2,2013-07-20 08:01:00,
2013-07-20 04:03:00,70.5,69.0,29.65,SW,219,0.0,8.0,95,0.07,,,2.38,WUHU216DAVISVP2,2013-07-20 08:03:00,
2013-07-20 04:05:00,70.5,69.0,29.65,SW,225,1.0,8.0,95,0.06,,,2.38,WUHU216DAVISVP2,2013-07-20 08:05:00,
2013-07-20 04:07:00,70.6,69.1,29.65,WSW,244,0.0,8.0,95,0.04,,,2.38,WUHU216DAVISVP2,2013-07-20 08:07:00,
2013-07-20 04:09:00,70.6,69.1,29.65,WSW,244,0.0,8.0,95,0.04,,,2.38,WUHU216DAVISVP2,2013-07-20 08:09:00,
2013-07-20 04:12:00,70.7,69.2,29.65,WSW,251,0.0,4.0,95,0.02,,,2.38,WUHU216DAVISVP2,2013-07-20 08:12:00,
2013-07-20 04:14:00,70.7,69.2,29.65,WSW,251,0.0,4.0,95,0.02,,,2.38,WUHU216DAVISVP2,2013-07-20 08:14:00,
2013-07-20 04:15:00,70.7,69.2,29.65,WSW,251,0.0,4.0,95,0.01,,,2.38,WUHU216DAVISVP2,2013-07-20 08:15:00,
2013-07-20 04:17:00,70.8,69.3,29.65,WSW,256,1.0,6.0,95,0.01,,,2.38,WUHU216DAVISVP2,2013-07-20 08:17:00,
2013-07-20 04:19:00,70.8,69.3,29.65,West,268,0.0,6.0,95,0.01,,,2.38,WUHU216DAVISVP2,2013-07-20 08:19:00,
2013-07-20 04:21:00,70.9,69.4,29.65,West,275,4.0,6.0,95,0.01,,,2.38,WUHU216DAVISVP2,2013-07-20 08:21:00,
2013-07-20 04:23:00,71.0,69.5,29.65,West,277,5.0,6.0,95,0.01,,,2.38,WUHU216DAVISVP2,2013-07-20 08:23:00,
2013-07-20 04:24:00,71.0,69.5,29.65,West,277,5.0,6.0,95,0.01,,,2.38,WUHU216DAVISVP2,2013-07-20 08:24:00,
2013-07-20 04:27:00,71.0,69.5,29.64,West,277,5.0,6.0,95,0.01,,,2.38,WUHU216DAVISVP2,2013-07-20 08:27:00,
2013-07-20 04:29:00,71.0,69.5,29.64,WNW,282,1.0,6.0,95,0.01,,,2.38,WUHU216DAVISVP2,2013-07-20 08:29:00,
2013-07-20 04:30:00,71.0,69.5,29.64,West,281,2.0,6.0,95,0.01,,,2.38,WUHU216DAVISVP2,2013-07-20 08:30:00,
2013-07-20 04:33:00,71.0,69.5,29.64,WNW,286,4.0,6.0,95,0.01,,,2.38,WUHU216DAVISVP2,2013-07-20 08:33:00,
2013-07-20 04:34:00,71.0,69.5,29.64,WNW,286,1.0,6.0,95,0.01,,,2.38,WUHU216DAVISVP2,2013-07-20 08:34:00,
2013-07-20 04:37:00,71.0,69.5,29.65,WSW,240,1.0,5.0,95,0.01,,,2.38,WUHU216DAVISVP2,2013-07-20 08:37:00,
2013-07-20 04:39:00,71.1,69.6,29.65,WSW,252,1.0,5.0,95,0.01,,,2.38,WUHU216DAVISVP2,2013-07-20 08:39:00,
2013-07-20 04:41:00,71.0,69.5,29.66,WSW,252,0.0,5.0,95,0.01,,,2.38,WUHU216DAVISVP2,2013-07-20 08:41:00,
2013-07-20 04:44:00,71.1,69.6,29.66,West,262,1.0,5.0,95,0.01,,,2.38,WUHU216DAVISVP2,2013-07-20 08:44:00,
2013-07-20 04:49:00,71.0,69.5,29.66,West,266,0.0,4.0,95,0.01,,,2.38,WUHU216DAVISVP2,2013-07-20 08:49:00,
2013-07-20 04:50:00,71.1,69.6,29.66,West,266,0.0,4.0,95,0.01,,,2.38,WUHU216DAVISVP2,2013-07-20 08:50:00,
2013-07-20 04:52:00,71.0,69.5,29.66,West,267,1.0,4.0,95,0.00,,,2.38,WUHU216DAVISVP2,2013-07-20 08:52:00,
2013-07-20 04:54:00,71.0,69.5,29.66,West,267,0.0,4.0,95,0.00,,,2.38,WUHU216DAVISVP2,2013-07-20 08:54:00,
2013-07-20 04:55:00,71.0,69.5,29.66,West,267,0.0,4.0,95,0.00,,,2.38,WUHU216DAVISVP2,2013-07-20 08:55:00,
2013-07-20 04:57:00,71.0,69.5,29.66,West,267,1.0,3.0,95,0.00,,,2.38,WUHU216DAVISVP2,2013-07-20 08:57:00,
2013-07-20 04:59:00,71.0,69.5,29.66,West,267,0.0,3.0,95,0.00,,,2.38,WUHU216DAVISVP2,2013-07-20 08:59:00,
2013-07-20 05:00:00,71.0,69.5,29.66,West,267,0.0,3.0,95,0.00,,,2.38,WUHU216DAVISVP2,2013-07-20 09:00:00,
2013-07-20 05:03:00,70.9,69.4,29.65,West,267,0.0,1.0,95,0.00,,,2.38,WUHU216DAVISVP2,2013-07-20 09:03:00,
2013-07-20 05:05:00,71.0,69.5,29.64,WSW,257,0.0,2.0,95,0.00,,,2.38,WUHU216DAVISVP2,2013-07-20 09:05:00,
2013-07-20 05:07:00,71.0,69.5,29.64,WSW,257,0.0,2.0,95,0.00,,,2.38,WUHU216DAVISVP2,2013-07-20 09:07:00,
2013-07-20 05:09:00,71.0,69.5,29.65,WSW,257,0.0,2.0,95,0.00,,,2.38,WUHU216DAVISVP2,2013-07-20 09:09:00,
2013-07-20 05:12:00,71.0,69.5,29.65,WSW,257,0.0,2.0,95,0.00,,,2.38,WUHU216DAVISVP2,2013-07-20 09:12:00,
2013-07-20 05:15:00,71.1,69.6,29.67,WSW,257,0.0,1.0,95,0.00,,,2.38,WUHU216DAVISVP2,2013-07-20 09:15:00,
2013-07-20 05:17:00,71.1,69.6,29.67,WSW,257,0.0,1.0,95,0.00,,,2.38,WUHU216DAVISVP2,2013-07-20 09:17:00,
2013-07-20 05:20:00,71.2,69.7,29.67,SW,225,2.0,5.0,95,0.00,,,2.38,WUHU216DAVISVP2,2013-07-20 09:20:00,
2013-07-20 05:22:00,71.2,69.7,29.67,SW,225,0.0,5.0,95,0.00,,,2.38,WUHU216DAVISVP2,2013-07-20 09:22:00,
2013-07-20 05:24:00,71.2,69.7,29.67,SW,225,0.0,5.0,95,0.00,,,2.38,WUHU216DAVISVP2,2013-07-20 09:24:00,
2013-07-20 05:26:00,71.2,69.7,29.67,SW,225,0.0,5.0,95,0.00,,,2.38,WUHU216DAVISVP2,2013-07-20 09:26:00,
2013-07-20 05:28:00,71.2,69.7,29.67,SW,225,0.0,5.0,95,0.00,,,2.38,WUHU216DAVISVP2,2013-07-20 09:28:00,
2013-07-20 05:31:00,71.2,69.7,29.67,WSW,254,0.0,4.0,95,0.00,,,2.38,WUHU216DAVISVP2,2013-07-20 09:31:00,
2013-07-20 05:33:00,71.2,69.7,29.67,WSW,254,0.0,4.0,95,0.00,,,2.38,WUHU216DAVISVP2,2013-07-20 09:33:00,
2013-07-20 05:34:00,71.2,69.7,29.67,WSW,254,1.0,4.0,95,0.00,,,2.38,WUHU216DAVISVP2,2013-07-20 09:34:00,
2013-07-20 05:35:00,71.2,69.7,29.67,WSW,254,0.0,4.0,95,0.00,,,2.38,WUHU216DAVISVP2,2013-07-20 09:35:00,
2013-07-20 05:38:00,71.2,69.7,29.66,WSW,254,0.0,4.0,95,0.00,,,2.38,WUHU216DAVISVP2,2013-07-20 09:38:00,
2013-07-20 05:43:00,71.2,69.7,29.67,West,259,1.0,4.0,95,0.00,,,2.38,WUHU216DAVISVP2,2013-07-20 09:43:00,
2013-07-20 05:45:00,71.2,69.7,29.67,West,259,0.0,4.0,95,0.00,,,2.38,WUHU216DAVISVP2,2013-07-20 09:45:00,
2013-07-20 05:46:00,71.2,69.7,29.67,West,259,0.0,4.0,95,0.00,,,2.38,WUHU216DAVISVP2,2013-07-20 09:46:00,
2013-07-20 05:48:00,71.2,69.7,29.67,WSW,254,2.0,4.0,95,0.00,,,2.38,WUHU216DAVISVP2,2013-07-20 09:48:00,
2013-07-20 05:53:00,71.2,69.7,29.68,SW,234,0.0,5.0,95,0.00,,,2.38,WUHU216DAVISVP2,2013-07-20 09:53:00,
2013-07-20 05:54:00,71.2,69.7,29.67,SW,234,0.0,5.0,95,0.00,,,2.38,WUHU216DAVISVP2,2013-07-20 09:54:00,
2013-07-20 05:56:00,71.2,69.7,29.67,WSW,255,0.0,5.0,95,0.00,,,2.38,WUHU216DAVISVP2,2013-07-20 09:56:00,
2013-07-20 05:58:00,71.2,69.7,29.67,WSW,255,2.0,5.0,95,0.00,,,2.38,WUHU216DAVISVP2,2013-07-20 09:58:00,
2013-07-20 05:59:00,71.2,69.7,29.67,WSW,255,2.0,5.0,95,0.00,,,2.38,WUHU216DAVISVP2,2013-07-20 09:59:00,
2013-07-20 06:00:00,71.3,69.8,29.68,WNW,288,1.0,5.0,95,0.00,,,2.38,WUHU216DAVISVP2,2013-07-20 10:00:00,
2013-07-20 06:03:00,71.3,69.8,29.68,WNW,288,1.0,5.0,95,0.00,,,2.38,WUHU216DAVISVP2,2013-07-20 10:03:00,
2013-07-20 06:07:00,71.3,69.8,29.67,WNW,288,1.0,5.0,95,0.00,,,2.38,WUHU216DAVISVP2,2013-07-20 10:07:00,
2013-07-20 06:08:00,71.3,69.8,29.67,WNW,288,1.0,5.0,95,0.00,,,2.38,WUHU216DAVISVP2,2013-07-20 10:08:00,
2013-07-20 06:10:00,71.3,69.8,29.68,WNW,288,1.0,2.0,95,0.00,,,2.38,WUHU216DAVISVP2,2013-07-20 10:10:00,
2013-07-20 06:13:00,71.3,69.8,29.68,WNW,288,2.0,2.0,95,0.00,,,2.38,WUHU216DAVISVP2,2013-07-20 10:13:00,
2013-07-20 06:16:00,71.3,69.8,29.68,WNW,288,0.0,2.0,95,0.00,,,2.38,WUHU216DAVISVP2,2013-07-20 10:16:00,
2013-07-20 06:18:00,71.3,69.8,29.68,WNW,288,1.0,2.0,95,0.00,,,2.38,WUHU216DAVISVP2,2013-07-20 10:18:00,
2013-07-20 06:20:00,71.3,69.8,29.68,WNW,288,0.0,2.0,95,0.00,,,2.38,WUHU216DAVISVP2,2013-07-20 10:20:00,
2013-07-20 06:21:00,71.3,70.1,29.68,West,273,2.0,4.0,96,0.00,,,2.38,WUHU216DAVISVP2,2013-07-20 10:21:00,
2013-07-20 06:23:00,71.3,70.1,29.68,West,277,0.0,4.0,96,0.00,,,2.38,WUHU216DAVISVP2,2013-07-20 10:23:00,
2013-07-20 06:26:00,71.4,70.2,29.68,West,274,0.0,4.0,96,0.00,,,2.38,WUHU216DAVISVP2,2013-07-20 10:26:00,
2013-07-20 06:28:00,71.4,70.2,29.69,West,274,0.0,4.0,96,0.00,,,2.38,WUHU216DAVISVP2,2013-07-20 10:28:00,
2013-07-20 06:29:00,71.4,70.2,29.69,West,274,1.0,4.0,96,0.00,,,2.38,WUHU216DAVISVP2,2013-07-20 10:29:00,
2013-07-20 06:32:00,71.4,70.2,29.69,West,260,2.0,5.0,96,0.00,,,2.38,WUHU216DAVISVP2,2013-07-20 10:32:00,
2013-07-20 06:33:00,71.4,70.2,29.69,West,260,0.0,5.0,96,0.00,,,2.38,WUHU216DAVISVP2,2013-07-20 10:33:00,
2013-07-20 06:34:00,71.4,70.2,29.69,West,260,0.0,5.0,96,0.00,,,2.38,WUHU216DAVISVP2,2013-07-20 10:34:00,
2013-07-20 06:38:00,71.5,70.3,29.70,West,260,1.0,5.0,96,0.00,,,2.38,WUHU216DAVISVP2,2013-07-20 10:38:00,
2013-07-20 06:39:00,71.5,70.3,29.70,West,260,1.0,5.0,96,0.00,,,2.38,WUHU216DAVISVP2,2013-07-20 10:39:00,
2013-07-20 06:41:00,71.5,70.3,29.69,West,260,0.0,3.0,96,0.00,,,2.38,WUHU216DAVISVP2,2013-07-20 10:41:00,
2013-07-20 06:43:00,71.5,70.3,29.70,West,260,1.0,2.0,96,0.00,,,2.38,WUHU216DAVISVP2,2013-07-20 10:43:00,
2013-07-20 06:44:00,71.5,70.3,29.70,West,260,1.0,2.0,96,0.00,,,2.38,WUHU216DAVISVP2,2013-07-20 10:44:00,
2013-07-20 06:45:00,71.6,70.4,29.70,West,260,0.0,2.0,96,0.00,,,2.38,WUHU216DAVISVP2,2013-07-20 10:45:00,
2013-07-20 06:46:00,71.6,70.4,29.70,West,260,0.0,1.0,96,0.00,,,2.38,WUHU216DAVISVP2,2013-07-20 10:46:00,
2013-07-20 06:49:00,71.6,70.4,29.70,West,260,0.0,1.0,96,0.00,,,2.38,WUHU216DAVISVP2,2013-07-20 10:49:00,
2013-07-20 06:51:00,71.6,70.4,29.70,West,260,0.0,1.0,96,0.00,,,2.38,WUHU216DAVISVP2,2013-07-20 10:51:00,
2013-07-20 06:52:00,71.6,70.4,29.70,West,260,0.0,1.0,96,0.00,,,2.38,WUHU216DAVISVP2,2013-07-20 10:52:00,
2013-07-20 06:54:00,71.6,70.4,29.70,West,260,0.0,1.0,96,0.00,,,2.38,WUHU216DAVISVP2,2013-07-20 10:54:00,
2013-07-20 06:57:00,71.6,70.4,29.71,West,260,0.0,1.0,96,0.00,,,2.38,WUHU216DAVISVP2,2013-07-20 10:57:00,
2013-07-20 06:59:00,71.6,70.4,29.71,West,260,0.0,1.0,96,0.00,,,2.38,WUHU216DAVISVP2,2013-07-20 10:59:00,
2013-07-20 07:00:00,71.6,70.4,29.71,West,260,0.0,1.0,96,0.00,,,2.38,WUHU216DAVISVP2,2013-07-20 11:00:00,
2013-07-20 07:01:00,71.6,70.4,29.71,West,260,0.0,0.0,96,0.00,,,2.38,WUHU216DAVISVP2,2013-07-20 11:01:00,
2013-07-20 07:03:00,71.6,70.4,29.71,West,260,0.0,0.0,96,0.00,,,2.38,WUHU216DAVISVP2,2013-07-20 11:03:00,
2013-07-20 07:05:00,71.7,70.5,29.71,West,260,0.0,0.0,96,0.00,,,2.38,WUHU216DAVISVP2,2013-07-20 11:05:00,
2013-07-20 07:06:00,71.7,70.5,29.71,West,260,0.0,0.0,96,0.00,,,2.38,WUHU216DAVISVP2,2013-07-20 11:06:00,
2013-07-20 07:09:00,71.7,70.5,29.71,West,260,0.0,0.0,96,0.00,,,2.38,WUHU216DAVISVP2,2013-07-20 11:09:00,
2013-07-20 07:10:00,71.7,70.5,29.71,West,260,0.0,0.0,96,0.00,,,2.38,WUHU216DAVISVP2,2013-07-20 11:10:00,
2013-07-20 07:13:00,71.7,70.5,29.71,West,260,0.0,0.0,96,0.00,,,2.38,WUHU216DAVISVP2,2013-07-20 11:13:00,
2013-07-20 07:15:00,71.7,70.5,29.72,West,260,0.0,0.0,96,0.00,,,2.38,WUHU216DAVISVP2,2013-07-20 11:15:00,
2013-07-20 07:16:00,71.7,70.5,29.72,West,260,0.0,0.0,96,0.00,,,2.38,WUHU216DAVISVP2,2013-07-20 11:16:00,
2013-07-20 07:18:00,71.8,70.6,29.72,West,260,0.0,0.0,96,0.00,,,2.38,WUHU216DAVISVP2,2013-07-20 11:18:00,
2013-07-20 07:20:00,71.8,70.6,29.72,West,260,0.0,0.0,96,0.00,,,2.38,WUHU216DAVISVP2,2013-07-20 11:20:00,
2013-07-20 07:23:00,71.8,70.6,29.72,West,260,0.0,0.0,96,0.00,,,2.38,WUHU216DAVISVP2,2013-07-20 11:23:00,
2013-07-20 07:25:00,71.9,70.7,29.72,West,260,0.0,0.0,96,0.00,,,2.38,WUHU216DAVISVP2,2013-07-20 11:25:00,
2013-07-20 07:26:00,71.9,70.7,29.72,West,260,0.0,0.0,96,0.00,,,2.38,WUHU216DAVISVP2,2013-07-20 11:26:00,
2013-07-20 07:28:00,71.9,70.7,29.72,West,260,0.0,0.0,96,0.00,,,2.38,WUHU216DAVISVP2,2013-07-20 11:28:00,
2013-07-20 07:30:00,71.9,70.7,29.72,West,260,0.0,0.0,96,0.00,,,2.38,WUHU216DAVISVP2,2013-07-20 11:30:00,
2013-07-20 07:33:00,71.9,70.7,29.72,West,260,0.0,0.0,96,0.00,,,2.38,WUHU216DAVISVP2,2013-07-20 11:33:00,
2013-07-20 07:34:00,71.9,70.7,29.72,West,260,0.0,0.0,96,0.00,,,2.38,WUHU216DAVISVP2,2013-07-20 11:34:00,
2013-07-20 07:35:00,71.9,70.7,29.72,West,260,0.0,0.0,96,0.00,,,2.38,WUHU216DAVISVP2,2013-07-20 11:35:00,
2013-07-20 07:36:00,71.9,70.7,29.72,West,260,0.0,0.0,96,0.00,,,2.38,WUHU216DAVISVP2,2013-07-20 11:36:00,
2013-07-20 07:41:00,71.9,70.7,29.72,West,260,0.0,0.0,96,0.00,,,2.38,WUHU216DAVISVP2,2013-07-20 11:41:00,
2013-07-20 07:45:00,71.9,70.7,29.72,West,260,0.0,0.0,96,0.00,,,2.38,WUHU216DAVISVP2,2013-07-20 11:45:00,
2013-07-20 07:46:00,71.9,70.7,29.72,West,260,0.0,0.0,96,0.00,,,2.38,WUHU216DAVISVP2,2013-07-20 11:46:00,
2013-07-20 07:47:00,72.0,70.8,29.71,West,260,0.0,0.0,96,0.00,,,2.38,WUHU216DAVISVP2,2013-07-20 11:47:00,
2013-07-20 07:49:00,71.9,70.7,29.72,West,260,0.0,0.0,96,0.00,,,2.38,WUHU216DAVISVP2,2013-07-20 11:49:00,
2013-07-20 07:51:00,72.0,70.8,29.72,West,260,0.0,1.0,96,0.00,,,2.38,WUHU216DAVISVP2,2013-07-20 11:51:00,
2013-07-20 07:52:00,72.0,70.8,29.72,West,260,0.0,1.0,96,0.00,,,2.38,WUHU216DAVISVP2,2013-07-20 11:52:00,
2013-07-20 07:54:00,72.0,70.8,29.72,West,260,0.0,1.0,96,0.00,,,2.38,WUHU216DAVISVP2,2013-07-20 11:54:00,
2013-07-20 07:56:00,72.0,70.8,29.72,West,260,0.0,1.0,96,0.00,,,2.38,WUHU216DAVISVP2,2013-07-20 11:56:00,
2013-07-20 07:58:00,72.1,70.9,29.72,West,260,0.0,1.0,96,0.00,,,2.38,WUHU216DAVISVP2,2013-07-20 11:58:00,
2013-07-20 07:59:00,72.2,71.0,29.72,West,260,0.0,1.0,96,0.00,,,2.38,WUHU216DAVISVP2,2013-07-20 11:59:00,
2013-07-20 08:01:00,72.2,71.0,29.72,West,260,0.0,0.0,96,0.00,,,2.38,WUHU216DAVISVP2,2013-07-20 12:01:00,
2013-07-20 08:02:00,72.2,71.0,29.72,West,260,0.0,0.0,96,0.00,,,2.38,WUHU216DAVISVP2,2013-07-20 12:02:00,
2013-07-20 08:04:00,72.3,71.1,29.72,West,260,0.0,0.0,96,0.00,,,2.38,WUHU216DAVISVP2,2013-07-20 12:04:00,
2013-07-20 08:07:00,72.4,71.2,29.71,West,260,0.0,1.0,96,0.00,,,2.38,WUHU216DAVISVP2,2013-07-20 12:07:00,
2013-07-20 08:11:00,72.6,71.4,29.71,West,260,1.0,2.0,96,0.00,,,2.38,WUHU216DAVISVP2,2013-07-20 12:11:00,
2013-07-20 08:12:00,72.6,71.4,29.71,West,260,1.0,2.0,96,0.00,,,2.38,WUHU216DAVISVP2,2013-07-20 12:12:00,
2013-07-20 08:13:00,72.6,71.4,29.72,West,260,0.0,2.0,96,0.00,,,2.38,WUHU216DAVISVP2,2013-07-20 12:13:00,
2013-07-20 08:15:00,72.6,71.4,29.72,West,260,0.0,2.0,96,0.00,,,2.38,WUHU216DAVISVP2,2013-07-20 12:15:00,
2013-07-20 08:17:00,72.6,71.1,29.72,West,260,0.0,2.0,95,0.00,,,2.38,WUHU216DAVISVP2,2013-07-20 12:17:00,
2013-07-20 08:18:00,72.6,71.1,29.72,West,260,0.0,2.0,95,0.00,,,2.38,WUHU216DAVISVP2,2013-07-20 12:18:00,
2013-07-20 08:19:00,72.6,71.1,29.72,West,260,0.0,2.0,95,0.00,,,2.38,WUHU216DAVISVP2,2013-07-20 12:19:00,
2013-07-20 08:21:00,72.7,71.2,29.72,West,260,0.0,2.0,95,0.00,,,2.38,WUHU216DAVISVP2,2013-07-20 12:21:00,
2013-07-20 08:22:00,72.7,71.2,29.72,West,260,0.0,2.0,95,0.00,,,2.38,WUHU216DAVISVP2,2013-07-20 12:22:00,
2013-07-20 08:23:00,72.7,71.2,29.72,West,260,0.0,1.0,95,0.00,,,2.38,WUHU216DAVISVP2,2013-07-20 12:23:00,
2013-07-20 08:25:00,72.8,71.3,29.72,West,260,0.0,1.0,95,0.00,,,2.38,WUHU216DAVISVP2,2013-07-20 12:25:00,
2013-07-20 08:27:00,72.8,71.3,29.73,West,260,0.0,1.0,95,0.00,,,2.38,WUHU216DAVISVP2,2013-07-20 12:27:00,
2013-07-20 08:28:00,72.8,71.3,29.73,West,260,0.0,0.0,95,0.00,,,2.38,WUHU216DAVISVP2,2013-07-20 12:28:00,
2013-07-20 08:30:00,72.9,71.4,29.73,West,260,0.0,0.0,95,0.00,,,2.38,WUHU216DAVISVP2,2013-07-20 12:30:00,
2013-07-20 08:32:00,72.9,71.4,29.73,West,260,0.0,0.0,95,0.00,,,2.38,WUHU216DAVISVP2,2013-07-20 12:32:00,
2013-07-20 08:33:00,72.9,71.4,29.73,West,260,0.0,0.0,95,0.00,,,2.38,WUHU216DAVISVP2,2013-07-20 12:33:00,
2013-07-20 08:35:00,73.0,71.5,29.73,West,260,0.0,1.0,95,0.00,,,2.38,WUHU216DAVISVP2,2013-07-20 12:35:00,
2013-07-20 08:37:00,73.1,71.6,29.73,West,260,1.0,2.0,95,0.00,,,2.38,WUHU216DAVISVP2,2013-07-20 12:37:00,
2013-07-20 08:39:00,73.2,71.7,29.73,West,260,1.0,2.0,95,0.00,,,2.38,WUHU216DAVISVP2,2013-07-20 12:39:00,
2013-07-20 08:42:00,73.4,71.9,29.73,West,260,0.0,2.0,95,0.00,,,2.38,WUHU216DAVISVP2,2013-07-20 12:42:00,
2013-07-20 08:44:00,73.5,72.0,29.73,North,5,0.0,2.0,95,0.00,,,2.38,WUHU216DAVISVP2,2013-07-20 12:44:00,
2013-07-20 08:46:00,73.6,72.1,29.73,East,89,1.0,2.0,95,0.00,,,2.38,WUHU216DAVISVP2,2013-07-20 12:46:00,
2013-07-20 08:48:00,73.6,72.1,29.73,East,89,1.0,2.0,95,0.00,,,2.38,WUHU216DAVISVP2,2013-07-20 12:48:00,
2013-07-20 08:50:00,73.9,72.4,29.73,North,11,1.0,4.0,95,0.00,,,2.38,WUHU216DAVISVP2,2013-07-20 12:50:00,
2013-07-20 08:53:00,74.0,72.2,29.73,North,9,2.0,4.0,94,0.00,,,2.38,WUHU216DAVISVP2,2013-07-20 12:53:00,
2013-07-20 08:55:00,74.0,71.8,29.73,North,355,1.0,5.0,93,0.00,,,2.38,WUHU216DAVISVP2,2013-07-20 12:55:00,
2013-07-20 08:57:00,73.9,71.4,29.73,North,355,0.0,5.0,92,0.00,,,2.38,WUHU216DAVISVP2,2013-07-20 12:57:00,
2013-07-20 08:58:00,73.9,71.4,29.73,North,355,0.0,5.0,92,0.00,,,2.38,WUHU216DAVISVP2,2013-07-20 12:58:00,
2013-07-20 09:00:00,73.9,71.7,29.73,North,355,0.0,5.0,93,0.00,,,2.38,WUHU216DAVISVP2,2013-07-20 13:00:00,
2013-07-20 09:02:00,73.8,71.3,29.73,North,355,2.0,5.0,92,0.00,,,2.38,WUHU216DAVISVP2,2013-07-20 13:02:00,
2013-07-20 09:03:00,73.8,71.3,29.73,North,355,2.0,5.0,92,0.00,,,2.38,WUHU216DAVISVP2,2013-07-20 13:03:00,
2013-07-20 09:07:00,73.9,71.7,29.73,North,355,0.0,4.0,93,0.00,,,2.38,WUHU216DAVISVP2,2013-07-20 13:07:00,
2013-07-20 09:08:00,73.9,71.7,29.73,North,355,0.0,4.0,93,0.00,,,2.38,WUHU216DAVISVP2,2013-07-20 13:08:00,
2013-07-20 09:09:00,73.9,71.7,29.73,North,355,0.0,4.0,93,0.00,,,2.38,WUHU216DAVISVP2,2013-07-20 13:09:00,
2013-07-20 09:12:00,74.0,71.8,29.73,NNW,346,5.0,5.0,93,0.00,,,2.38,WUHU216DAVISVP2,2013-07-20 13:12:00,
2013-07-20 09:13:00,74.0,71.8,29.73,NNW,346,5.0,5.0,93,0.00,,,2.38,WUHU216DAVISVP2,2013-07-20 13:13:00,
2013-07-20 09:14:00,74.1,71.6,29.74,NNW,346,1.0,5.0,92,0.00,,,2.38,WUHU216DAVISVP2,2013-07-20 13:14:00,
2013-07-20 09:16:00,74.3,72.1,29.74,NNW,341,4.0,5.0,93,0.00,,,2.38,WUHU216DAVISVP2,2013-07-20 13:16:00,
2013-07-20 09:18:00,74.7,72.5,29.74,NNW,341,2.0,5.0,93,0.00,,,2.38,WUHU216DAVISVP2,2013-07-20 13:18:00,
2013-07-20 09:20:00,74.8,72.3,29.74,NNW,340,1.0,5.0,92,0.00,,,2.38,WUHU216DAVISVP2,2013-07-20 13:20:00,
2013-07-20 09:22:00,74.9,72.4,29.74,NNW,337,1.0,5.0,92,0.00,,,2.38,WUHU216DAVISVP2,2013-07-20 13:22:00,
2013-07-20 09:23:00,74.9,72.1,29.74,NNW,337,1.0,5.0,91,0.00,,,2.38,WUHU216DAVISVP2,2013-07-20 13:23:00,
2013-07-20 09:24:00,74.9,72.1,29.74,NNW,337,1.0,5.0,91,0.00,,,2.38,WUHU216DAVISVP2,2013-07-20 13:24:00,
2013-07-20 09:25:00,74.9,72.1,29.74,NNW,337,0.0,5.0,91,0.00,,,2.38,WUHU216DAVISVP2,2013-07-20 13:25:00,
2013-07-20 09:27:00,74.9,72.1,29.74,NW,319,4.0,5.0,91,0.00,,,2.38,WUHU216DAVISVP2,2013-07-20 13:27:00,
2013-07-20 09:28:00,74.9,71.8,29.74,NNW,342,1.0,5.0,90,0.00,,,2.38,WUHU216DAVISVP2,2013-07-20 13:28:00,
2013-07-20 09:29:00,74.9,71.8,29.74,NNW,342,1.0,5.0,90,0.00,,,2.38,WUHU216DAVISVP2,2013-07-20 13:29:00,
2013-07-20 09:31:00,74.8,71.7,29.74,NNW,347,1.0,5.0,90,0.00,,,2.38,WUHU216DAVISVP2,2013-07-20 13:31:00,
2013-07-20 09:33:00,74.8,72.0,29.75,NNW,347,0.0,5.0,91,0.00,,,2.38,WUHU216DAVISVP2,2013-07-20 13:33:00,
2013-07-20 09:34:00,74.8,72.0,29.75,NNW,347,0.0,5.0,91,0.00,,,2.38,WUHU216DAVISVP2,2013-07-20 13:34:00,
2013-07-20 09:35:00,74.8,72.0,29.75,NNW,347,0.0,5.0,91,0.00,,,2.38,WUHU216DAVISVP2,2013-07-20 13:35:00,
2013-07-20 09:37:00,74.8,71.7,29.75,NNW,347,1.0,4.0,90,0.00,,,2.38,WUHU216DAVISVP2,2013-07-20 13:37:00,
2013-07-20 09:38:00,74.8,71.7,29.75,NNW,347,0.0,4.0,90,0.00,,,2.38,WUHU216DAVISVP2,2013-07-20 13:38:00,
2013-07-20 09:39:00,74.8,71.7,29.75,NNW,347,0.0,4.0,90,0.00,,,2.38,WUHU216DAVISVP2,2013-07-20 13:39:00,
2013-07-20 09:40:00,74.9,71.8,29.75,NNW,347,1.0,4.0,90,0.00,,,2.38,WUHU216DAVISVP2,2013-07-20 13:40:00,
2013-07-20 09:42:00,74.9,71.8,29.75,NNW,348,2.0,3.0,90,0.00,,,2.38,WUHU216DAVISVP2,2013-07-20 13:42:00,
2013-07-20 09:43:00,74.9,71.8,29.75,NNW,348,2.0,3.0,90,0.00,,,2.38,WUHU216DAVISVP2,2013-07-20 13:43:00,
2013-07-20 09:44:00,74.9,71.8,29.75,NNW,348,2.0,3.0,90,0.00,,,2.38,WUHU216DAVISVP2,2013-07-20 13:44:00,
2013-07-20 09:48:00,75.0,71.9,29.75,North,355,0.0,2.0,90,0.00,,,2.38,WUHU216DAVISVP2,2013-07-20 13:48:00,
2013-07-20 09:49:00,75.1,72.0,29.75,North,355,0.0,2.0,90,0.00,,,2.38,WUHU216DAVISVP2,2013-07-20 13:49:00,
2013-07-20 09:50:00,75.1,72.0,29.75,North,355,0.0,2.0,90,0.00,,,2.38,WUHU216DAVISVP2,2013-07-20 13:50:00,
2013-07-20 09:51:00,75.1,72.0,29.75,North,355,0.0,2.0,90,0.00,,,2.38,WUHU216DAVISVP2,2013-07-20 13:51:00,
2013-07-20 09:53:00,75.3,72.2,29.75,North,355,1.0,2.0,90,0.00,,,2.38,WUHU216DAVISVP2,2013-07-20 13:53:00,
2013-07-20 09:55:00,75.4,72.3,29.75,North,360,1.0,2.0,90,0.00,,,2.38,WUHU216DAVISVP2,2013-07-20 13:55:00,
2013-07-20 09:56:00,75.5,72.0,29.75,NNE,24,2.0,5.0,89,0.00,,,2.38,WUHU216DAVISVP2,2013-07-20 13:56:00,
2013-07-20 09:59:00,75.6,72.5,29.75,NNE,26,2.0,5.0,90,0.00,,,2.38,WUHU216DAVISVP2,2013-07-20 13:59:00,
2013-07-20 10:00:00,75.6,72.5,29.75,NNE,26,2.0,5.0,90,0.00,,,2.38,WUHU216DAVISVP2,2013-07-20 14:00:00,
2013-07-20 10:03:00,75.8,72.3,29.75,NNE,32,1.0,5.0,89,0.00,,,2.38,WUHU216DAVISVP2,2013-07-20 14:03:00,
2013-07-20 10:05:00,76.0,72.5,29.75,NNE,32,0.0,5.0,89,0.00,,,2.38,WUHU216DAVISVP2,2013-07-20 14:05:00,
2013-07-20 10:07:00,76.1,72.6,29.75,NNE,32,2.0,5.0,89,0.00,,,2.38,WUHU216DAVISVP2,2013-07-20 14:07:00,
2013-07-20 10:08:00,76.2,72.4,29.75,ENE,63,6.0,6.0,88,0.00,,,2.38,WUHU216DAVISVP2,2013-07-20 14:08:00,
2013-07-20 10:11:00,76.3,72.5,29.75,East,82,2.0,6.0,88,0.00,,,2.38,WUHU216DAVISVP2,2013-07-20 14:11:00,
2013-07-20 10:12:00,76.4,72.6,29.75,NE,46,2.0,6.0,88,0.00,,,2.38,WUHU216DAVISVP2,2013-07-20 14:12:00,
2013-07-20 10:14:00,76.4,72.6,29.75,NE,45,1.0,6.0,88,0.00,,,2.38,WUHU216DAVISVP2,2013-07-20 14:14:00,
2013-07-20 10:16:00,76.4,71.9,29.75,NE,45,0.0,6.0,86,0.00,,,2.38,WUHU216DAVISVP2,2013-07-20 14:16:00,
2013-07-20 10:17:00,76.4,72.2,29.75,NE,45,0.0,6.0,87,0.00,,,2.38,WUHU216DAVISVP2,2013-07-20 14:17:00,
2013-07-20 10:19:00,76.4,72.2,29.75,NE,42,0.0,6.0,87,0.00,,,2.38,WUHU216DAVISVP2,2013-07-20 14:19:00,
2013-07-20 10:21:00,76.4,72.6,29.75,NE,42,2.0,6.0,88,0.00,,,2.38,WUHU216DAVISVP2,2013-07-20 14:21:00,
2013-07-20 10:22:00,76.4,72.2,29.75,SE,136,0.0,6.0,87,0.00,,,2.38,WUHU216DAVISVP2,2013-07-20 14:22:00,
2013-07-20 10:24:00,76.3,72.1,29.75,ENE,78,2.0,6.0,87,0.00,,,2.38,WUHU216DAVISVP2,2013-07-20 14:24:00,
2013-07-20 10:26:00,76.3,72.1,29.75,ENE,68,2.0,6.0,87,0.00,,,2.38,WUHU216DAVISVP2,2013-07-20 14:26:00,
2013-07-20 10:28:00,76.3,72.1,29.75,East,96,1.0,6.0,87,0.00,,,2.38,WUHU216DAVISVP2,2013-07-20 14:28:00,
2013-07-20 10:29:00,76.3,72.1,29.75,ENE,59,1.0,5.0,87,0.00,,,2.38,WUHU216DAVISVP2,2013-07-20 14:29:00,
2013-07-20 10:31:00,76.4,72.6,29.75,ENE,76,2.0,4.0,88,0.00,,,2.38,WUHU216DAVISVP2,2013-07-20 14:31:00,
2013-07-20 10:33:00,76.5,72.3,29.75,East,83,0.0,4.0,87,0.00,,,2.38,WUHU216DAVISVP2,2013-07-20 14:33:00,
2013-07-20 10:35:00,76.7,71.8,29.75,East,83,0.0,4.0,85,0.00,,,2.38,WUHU216DAVISVP2,2013-07-20 14:35:00,
2013-07-20 10:36:00,76.8,71.9,29.75,East,83,0.0,3.0,85,0.00,,,2.38,WUHU216DAVISVP2,2013-07-20 14:36:00,
2013-07-20 10:39:00,77.2,72.3,29.75,NNW,345,8.0,8.0,85,0.00,,,2.38,WUHU216DAVISVP2,2013-07-20 14:39:00,
2013-07-20 10:40:00,77.1,72.2,29.75,NW,320,5.0,8.0,85,0.00,,,2.38,WUHU216DAVISVP2,2013-07-20 14:40:00,
2013-07-20 10:41:00,77.1,72.2,29.75,NW,320,5.0,8.0,85,0.00,,,2.38,WUHU216DAVISVP2,2013-07-20 14:41:00,
2013-07-20 10:46:00,76.4,71.6,29.75,NW,315,2.0,8.0,85,0.00,,,2.38,WUHU216DAVISVP2,2013-07-20 14:46:00,
2013-07-20 10:47:00,76.2,71.4,29.75,NNW,346,1.0,8.0,85,0.00,,,2.38,WUHU216DAVISVP2,2013-07-20 14:47:00,
2013-07-20 10:49:00,76.1,71.6,29.75,North,10,1.0,8.0,86,0.00,,,2.38,WUHU216DAVISVP2,2013-07-20 14:49:00,
2013-07-20 10:51:00,75.9,71.4,29.75,NNW,342,4.0,6.0,86,0.00,,,2.38,WUHU216DAVISVP2,2013-07-20 14:51:00,
2013-07-20 10:52:00,75.9,71.4,29.75,NNW,342,4.0,6.0,86,0.00,,,2.38,WUHU216DAVISVP2,2013-07-20 14:52:00,
2013-07-20 10:57:00,75.6,71.5,29.75,NNW,342,1.0,6.0,87,0.00,,,2.38,WUHU216DAVISVP2,2013-07-20 14:57:00,
2013-07-20 10:58:00,75.6,71.8,29.75,NNW,342,1.0,5.0,88,0.00,,,2.38,WUHU216DAVISVP2,2013-07-20 14:58:00,
2013-07-20 11:00:00,75.6,71.5,29.75,NNW,327,2.0,5.0,87,0.00,,,2.38,WUHU216DAVISVP2,2013-07-20 15:00:00,
2013-07-20 11:02:00,75.7,71.6,29.75,NW,313,1.0,5.0,87,0.00,,,2.38,WUHU216DAVISVP2,2013-07-20 15:02:00,
2013-07-20 11:04:00,76.0,71.8,29.75,NNW,342,5.0,7.0,87,0.00,,,2.38,WUHU216DAVISVP2,2013-07-20 15:04:00,
2013-07-20 11:07:00,76.2,71.7,29.75,NNW,345,2.0,7.0,86,0.00,,,2.38,WUHU216DAVISVP2,2013-07-20 15:07:00,
2013-07-20 11:08:00,76.3,71.8,29.75,NNW,332,4.0,7.0,86,0.00,,,2.38,WUHU216DAVISVP2,2013-07-20 15:08:00,
2013-07-20 11:10:00,76.3,71.5,29.75,NNW,333,4.0,7.0,85,0.00,,,2.38,WUHU216DAVISVP2,2013-07-20 15:10:00,
2013-07-20 11:11:00,76.3,71.5,29.75,North,351,2.0,7.0,85,0.00,,,2.38,WUHU216DAVISVP2,2013-07-20 15:11:00,
2013-07-20 11:12:00,76.3,71.5,29.75,North,351,2.0,7.0,85,0.00,,,2.38,WUHU216DAVISVP2,2013-07-20 15:12:00,
2013-07-20 11:13:00,76.3,71.8,29.76,NNW,338,2.0,7.0,86,0.00,,,2.38,WUHU216DAVISVP2,2013-07-20 15:13:00,
2013-07-20 11:15:00,76.2,71.4,29.75,North,355,2.0,7.0,85,0.00,,,2.38,WUHU216DAVISVP2,2013-07-20 15:15:00,
2013-07-20 11:17:00,76.3,71.5,29.75,North,355,4.0,5.0,85,0.00,,,2.38,WUHU216DAVISVP2,2013-07-20 15:17:00,
2013-07-20 11:18:00,76.3,71.1,29.75,North,355,0.0,5.0,84,0.00,,,2.38,WUHU216DAVISVP2,2013-07-20 15:18:00,
2013-07-20 11:22:00,76.9,72.4,29.75,NNE,25,6.0,6.0,86,0.00,,,2.38,WUHU216DAVISVP2,2013-07-20 15:22:00,
2013-07-20 11:25:00,77.1,71.9,29.75,North,5,4.0,8.0,84,0.00,,,2.38,WUHU216DAVISVP2,2013-07-20 15:25:00,
2013-07-20 11:27:00,77.3,72.1,29.75,North,5,4.0,8.0,84,0.00,,,2.38,WUHU216DAVISVP2,2013-07-20 15:27:00,
2013-07-20 11:29:00,77.3,71.8,29.75,NE,40,3.0,8.0,83,0.00,,,2.38,WUHU216DAVISVP2,2013-07-20 15:29:00,
2013-07-20 11:30:00,77.3,72.1,29.75,North,355,1.0,8.0,84,0.00,,,2.38,WUHU216DAVISVP2,2013-07-20 15:30:00,
2013-07-20 11:32:00,77.4,71.6,29.75,NW,322,2.0,8.0,82,0.00,,,2.38,WUHU216DAVISVP2,2013-07-20 15:32:00,
2013-07-20 11:33:00,77.5,72.0,29.75,NNE,31,5.0,7.0,83,0.00,,,2.38,WUHU216DAVISVP2,2013-07-20 15:33:00,
2013-07-20 11:35:00,77.6,72.1,29.75,ENE,67,0.0,7.0,83,0.00,,,2.38,WUHU216DAVISVP2,2013-07-20 15:35:00,
2013-07-20 11:37:00,77.7,71.8,29.75,NNE,28,5.0,7.0,82,0.00,,,2.38,WUHU216DAVISVP2,2013-07-20 15:37:00,
2013-07-20 11:38:00,77.8,71.9,29.75,NNE,24,4.0,7.0,82,0.00,,,2.38,WUHU216DAVISVP2,2013-07-20 15:38:00,
2013-07-20 11:40:00,77.8,71.6,29.75,North,355,2.0,7.0,81,0.00,,,2.38,WUHU216DAVISVP2,2013-07-20 15:40:00,
2013-07-20 11:42:00,78.0,71.7,29.75,NNW,335,5.0,8.0,81,0.00,,,2.38,WUHU216DAVISVP2,2013-07-20 15:42:00,
2013-07-20 11:43:00,78.0,71.7,29.75,NNW,335,5.0,8.0,81,0.00,,,2.38,WUHU216DAVISVP2,2013-07-20 15:43:00,
2013-07-20 11:45:00,78.2,71.9,29.75,NE,49,0.0,8.0,81,0.00,,,2.38,WUHU216DAVISVP2,2013-07-20 15:45:00,
2013-07-20 11:48:00,78.3,72.0,29.75,NE,46,0.0,8.0,81,0.00,,,2.38,WUHU216DAVISVP2,2013-07-20 15:48:00,
2013-07-20 11:51:00,78.6,71.9,29.75,East,85,0.0,6.0,80,0.00,,,2.38,WUHU216DAVISVP2,2013-07-20 15:51:00,
2013-07-20 11:53:00,78.7,72.0,29.75,NE,53,0.0,6.0,80,0.00,,,2.38,WUHU216DAVISVP2,2013-07-20 15:53:00,
2013-07-20 11:55:00,78.9,71.8,29.75,NNW,332,3.0,7.0,79,0.00,,,2.38,WUHU216DAVISVP2,2013-07-20 15:55:00,
2013-07-20 11:56:00,79.0,72.3,29.75,North,355,1.0,7.0,80,0.00,,,2.38,WUHU216DAVISVP2,2013-07-20 15:56:00,
2013-07-20 11:58:00,79.1,72.0,29.75,NW,323,2.0,7.0,79,0.00,,,2.38,WUHU216DAVISVP2,2013-07-20 15:58:00,
2013-07-20 12:00:00,79.2,72.1,29.75,NW,309,0.0,7.0,79,0.00,,,2.38,WUHU216DAVISVP2,2013-07-20 16:00:00,
2013-07-20 12:01:00,79.2,71.7,29.75,WNW,284,4.0,7.0,78,0.00,,,2.38,WUHU216DAVISVP2,2013-07-20 16:01:00,
2013-07-20 12:03:00,79.2,71.7,29.75,WNW,284,4.0,7.0,78,0.00,,,2.38,WUHU216DAVISVP2,2013-07-20 16:03:00,
2013-07-20 12:05:00,78.9,71.5,29.75,WNW,295,2.0,6.0,78,0.00,,,2.38,WUHU216DAVISVP2,2013-07-20 16:05:00,
2013-07-20 12:08:00,78.8,70.6,29.75,WNW,291,0.0,6.0,76,0.00,,,2.38,WUHU216DAVISVP2,2013-07-20 16:08:00,
2013-07-20 12:09:00,78.6,70.8,29.75,WNW,291,0.0,6.0,77,0.00,,,2.38,WUHU216DAVISVP2,2013-07-20 16:09:00,
2013-07-20 12:10:00,78.5,71.1,29.76,NW,315,1.0,6.0,78,0.00,,,2.38,WUHU216DAVISVP2,2013-07-20 16:10:00,
2013-07-20 12:12:00,78.5,70.7,29.76,NW,321,1.0,6.0,77,0.00,,,2.38,WUHU216DAVISVP2,2013-07-20 16:12:00,
2013-07-20 12:13:00,78.5,70.7,29.76,NW,321,1.0,6.0,77,0.00,,,2.38,WUHU216DAVISVP2,2013-07-20 16:13:00,
2013-07-20 12:15:00,78.6,70.8,29.75,NW,320,0.0,5.0,77,0.00,,,2.38,WUHU216DAVISVP2,2013-07-20 16:15:00,
2013-07-20 12:16:00,78.8,71.4,29.75,NNW,335,2.0,5.0,78,0.00,,,2.38,WUHU216DAVISVP2,2013-07-20 16:16:00,
2013-07-20 12:18:00,78.9,71.5,29.75,NNW,342,1.0,6.0,78,0.00,,,2.38,WUHU216DAVISVP2,2013-07-20 16:18:00,
2013-07-20 12:20:00,79.1,71.6,29.75,NNW,340,6.0,6.0,78,0.00,,,2.38,WUHU216DAVISVP2,2013-07-20 16:20:00,
2013-07-20 12:22:00,79.2,71.4,29.75,NNW,341,5.0,6.0,77,0.00,,,2.38,WUHU216DAVISVP2,2013-07-20 16:22:00,
2013-07-20 12:23:00,79.1,70.9,29.75,NNW,336,3.0,6.0,76,0.00,,,2.38,WUHU216DAVISVP2,2013-07-20 16:23:00,
2013-07-20 12:26:00,79.0,70.8,29.75,NNW,346,0.0,6.0,76,0.00,,,2.38,WUHU216DAVISVP2,2013-07-20 16:26:00,
2013-07-20 12:28:00,79.1,71.4,29.75,NW,323,1.0,6.0,77,0.00,,,2.38,WUHU216DAVISVP2,2013-07-20 16:28:00,
2013-07-20 12:29:00,79.1,71.4,29.75,NW,323,0.0,6.0,77,0.00,,,2.38,WUHU216DAVISVP2,2013-07-20 16:29:00,
2013-07-20 12:31:00,79.2,71.9,29.75,WNW,290,1.0,6.0,78,0.00,,,2.38,WUHU216DAVISVP2,2013-07-20 16:31:00,
2013-07-20 12:33:00,79.2,71.5,29.75,NNW,333,4.0,6.0,77,0.00,,,2.38,WUHU216DAVISVP2,2013-07-20 16:33:00,
2013-07-20 12:34:00,79.2,71.5,29.75,NNW,333,4.0,6.0,77,0.00,,,2.38,WUHU216DAVISVP2,2013-07-20 16:34:00,
2013-07-20 12:35:00,79.2,71.0,29.75,NNW,338,2.0,6.0,76,0.00,,,2.38,WUHU216DAVISVP2,2013-07-20 16:35:00,
2013-07-20 12:37:00,79.2,71.0,29.75,NNW,333,0.0,6.0,76,0.00,,,2.38,WUHU216DAVISVP2,2013-07-20 16:37:00,
2013-07-20 12:39:00,79.2,71.4,29.75,NNW,333,1.0,6.0,77,0.00,,,2.38,WUHU216DAVISVP2,2013-07-20 16:39:00,
2013-07-20 12:40:00,79.3,71.5,29.75,NW,313,0.0,6.0,77,0.00,,,2.38,WUHU216DAVISVP2,2013-07-20 16:40:00,
2013-07-20 12:43:00,79.6,71.4,29.75,NW,313,0.0,6.0,76,0.00,,,2.38,WUHU216DAVISVP2,2013-07-20 16:43:00,
2013-07-20 12:44:00,79.6,71.4,29.75,NW,313,0.0,6.0,76,0.00,,,2.38,WUHU216DAVISVP2,2013-07-20 16:44:00,
2013-07-20 12:45:00,79.8,71.9,29.75,West,262,5.0,6.0,77,0.00,,,2.38,WUHU216DAVISVP2,2013-07-20 16:45:00,
2013-07-20 12:46:00,79.9,70.9,29.76,West,266,1.0,6.0,74,0.00,,,2.38,WUHU216DAVISVP2,2013-07-20 16:46:00,
2013-07-20 12:48:00,80.1,71.5,29.75,WNW,300,2.0,6.0,75,0.00,,,2.38,WUHU216DAVISVP2,2013-07-20 16:48:00,
2013-07-20 12:49:00,80.1,71.5,29.75,WNW,300,2.0,6.0,75,0.00,,,2.38,WUHU216DAVISVP2,2013-07-20 16:49:00,
2013-07-20 12:50:00,80.3,70.4,29.75,West,281,3.0,6.0,72,0.00,,,2.38,WUHU216DAVISVP2,2013-07-20 16:50:00,
2013-07-20 12:52:00,80.2,70.4,29.75,West,278,0.0,6.0,72,0.00,,,2.38,WUHU216DAVISVP2,2013-07-20 16:52:00,
2013-07-20 12:54:00,80.2,71.3,29.75,WNW,283,2.0,6.0,74,0.00,,,2.38,WUHU216DAVISVP2,2013-07-20 16:54:00,
2013-07-20 12:56:00,80.2,70.6,29.75,WNW,284,0.0,6.0,72,0.00,,,2.38,WUHU216DAVISVP2,2013-07-20 16:56:00,
2013-07-20 12:58:00,80.3,71.1,29.75,WNW,284,0.0,6.0,73,0.00,,,2.38,WUHU216DAVISVP2,2013-07-20 16:58:00,
2013-07-20 12:59:00,80.3,71.1,29.75,WNW,284,0.0,6.0,73,0.00,,,2.38,WUHU216DAVISVP2,2013-07-20 16:59:00,
2013-07-20 13:02:00,80.5,70.4,29.75,WNW,300,0.0,5.0,71,0.00,,,2.38,WUHU216DAVISVP2,2013-07-20 17:02:00,
2013-07-20 13:03:00,80.6,70.9,29.75,WNW,297,3.0,5.0,72,0.00,,,2.38,WUHU216DAVISVP2,2013-07-20 17:03:00,
2013-07-20 13:04:00,80.6,70.9,29.75,WNW,297,3.0,5.0,72,0.00,,,2.38,WUHU216DAVISVP2,2013-07-20 17:04:00,
2013-07-20 13:07:00,80.9,71.4,29.75,WNW,288,0.0,5.0,73,0.00,,,2.38,WUHU216DAVISVP2,2013-07-20 17:07:00,
2013-07-20 13:08:00,81.1,71.2,29.75,NW,313,0.0,5.0,72,0.00,,,2.38,WUHU216DAVISVP2,2013-07-20 17:08:00,
2013-07-20 13:09:00,81.1,71.2,29.75,NW,313,0.0,5.0,72,0.00,,,2.38,WUHU216DAVISVP2,2013-07-20 17:09:00,
2013-07-20 13:10:00,81.3,70.6,29.75,WNW,285,5.0,8.0,70,0.00,,,2.38,WUHU216DAVISVP2,2013-07-20 17:10:00,
2013-07-20 13:11:00,81.5,70.8,29.75,NW,321,5.0,8.0,70,0.00,,,2.38,WUHU216DAVISVP2,2013-07-20 17:11:00,
2013-07-20 13:14:00,81.5,69.0,29.75,NW,320,1.0,8.0,66,0.00,,,2.38,WUHU216DAVISVP2,2013-07-20 17:14:00,
2013-07-20 13:16:00,81.5,69.7,29.75,NW,321,1.0,8.0,67,0.00,,,2.38,WUHU216DAVISVP2,2013-07-20 17:16:00,
2013-07-20 13:18:00,81.4,70.5,29.75,NW,321,0.0,8.0,69,0.00,,,2.38,WUHU216DAVISVP2,2013-07-20 17:18:00,
2013-07-20 13:20:00,81.5,71.0,29.75,WNW,292,2.0,8.0,70,0.00,,,2.38,WUHU216DAVISVP2,2013-07-20 17:20:00,
2013-07-20 13:21:00,81.5,71.0,29.75,WNW,292,0.0,6.0,70,0.00,,,2.38,WUHU216DAVISVP2,2013-07-20 17:21:00,
2013-07-20 13:23:00,81.6,70.7,29.75,WNW,292,0.0,4.0,69,0.00,,,2.38,WUHU216DAVISVP2,2013-07-20 17:23:00,
2013-07-20 13:24:00,81.7,71.2,29.75,WNW,292,0.0,4.0,70,0.00,,,2.38,WUHU216DAVISVP2,2013-07-20 17:24:00,
2013-07-20 13:25:00,81.7,71.2,29.75,WNW,292,0.0,4.0,70,0.00,,,2.38,WUHU216DAVISVP2,2013-07-20 17:25:00,
2013-07-20 13:28:00,82.0,71.2,29.75,NW,306,4.0,6.0,70,0.00,,,2.38,WUHU216DAVISVP2,2013-07-20 17:28:00,
2013-07-20 13:30:00,82.0,70.4,29.75,NNW,339,5.0,6.0,68,0.00,,,2.38,WUHU216DAVISVP2,2013-07-20 17:30:00,
2013-07-20 13:31:00,82.0,70.0,29.75,NNW,342,1.0,6.0,67,0.00,,,2.38,WUHU216DAVISVP2,2013-07-20 17:31:00,
2013-07-20 13:32:00,81.9,70.3,29.75,NW,326,3.0,6.0,68,0.00,,,2.38,WUHU216DAVISVP2,2013-07-20 17:32:00,
2013-07-20 13:34:00,81.8,70.2,29.75,NW,314,5.0,6.0,68,0.00,,,2.38,WUHU216DAVISVP2,2013-07-20 17:34:00,
2013-07-20 13:35:00,81.8,70.2,29.75,NW,314,5.0,6.0,68,0.00,,,2.38,WUHU216DAVISVP2,2013-07-20 17:35:00,
2013-07-20 13:38:00,81.4,69.8,29.75,NNW,335,1.0,6.0,68,0.00,,,2.38,WUHU216DAVISVP2,2013-07-20 17:38:00,
2013-07-20 13:40:00,81.3,70.2,29.76,NNW,333,5.0,6.0,69,0.00,,,2.38,WUHU216DAVISVP2,2013-07-20 17:40:00,
2013-07-20 13:41:00,81.3,70.2,29.76,NNW,333,5.0,6.0,69,0.00,,,2.38,WUHU216DAVISVP2,2013-07-20 17:41:00,
2013-07-20 13:43:00,81.0,69.4,29.76,NW,316,3.0,6.0,68,0.00,,,2.38,WUHU216DAVISVP2,2013-07-20 17:43:00,
2013-07-20 13:45:00,80.9,69.3,29.75,NW,325,5.0,6.0,68,0.00,,,2.38,WUHU216DAVISVP2,2013-07-20 17:45:00,
2013-07-20 13:46:00,80.9,69.3,29.75,NW,325,5.0,6.0,68,0.00,,,2.38,WUHU216DAVISVP2,2013-07-20 17:46:00,
2013-07-20 13:48:00,80.6,69.9,29.75,NW,316,4.0,6.0,70,0.00,,,2.38,WUHU216DAVISVP2,2013-07-20 17:48:00,
2013-07-20 13:51:00,80.5,69.4,29.75,NW,315,2.0,6.0,69,0.00,,,2.38,WUHU216DAVISVP2,2013-07-20 17:51:00,
2013-07-20 13:52:00,80.4,69.7,29.76,NW,315,1.0,6.0,70,0.00,,,2.38,WUHU216DAVISVP2,2013-07-20 17:52:00,
2013-07-20 13:55:00,80.3,69.2,29.76,NW,314,0.0,6.0,69,0.00,,,2.38,WUHU216DAVISVP2,2013-07-20 17:55:00,
2013-07-20 13:56:00,80.3,69.2,29.76,NW,314,0.0,6.0,69,0.00,,,2.38,WUHU216DAVISVP2,2013-07-20 17:56:00,
2013-07-20 13:58:00,80.5,70.6,29.75,WNW,303,2.0,5.0,72,0.00,,,2.38,WUHU216DAVISVP2,2013-07-20 17:58:00,
2013-07-20 14:00:00,80.7,70.4,29.75,West,264,0.0,5.0,71,0.00,,,2.38,WUHU216DAVISVP2,2013-07-20 18:00:00,
2013-07-20 14:01:00,80.9,70.2,29.75,WSW,244,0.0,5.0,70,0.00,,,2.38,WUHU216DAVISVP2,2013-07-20 18:01:00,
2013-07-20 14:05:00,81.4,70.2,29.76,WNW,284,2.0,5.0,69,0.00,,,2.38,WUHU216DAVISVP2,2013-07-20 18:05:00,
2013-07-20 14:06:00,81.4,70.2,29.76,WNW,284,2.0,5.0,69,0.00,,,2.38,WUHU216DAVISVP2,2013-07-20 18:06:00,
2013-07-20 14:08:00,82.0,68.9,29.75,NW,325,6.0,11.0,64,0.00,,,2.38,WUHU216DAVISVP2,2013-07-20 18:08:00,
2013-07-20 14:10:00,82.1,69.0,29.75,North,351,7.0,11.0,64,0.00,,,2.38,WUHU216DAVISVP2,2013-07-20 18:10:00,
2013-07-20 14:11:00,82.1,69.0,29.75,North,351,7.0,11.0,64,0.00,,,2.38,WUHU216DAVISVP2,2013-07-20 18:11:00,
2013-07-20 14:12:00,82.3,69.2,29.75,WNW,290,2.0,11.0,64,0.00,,,2.38,WUHU216DAVISVP2,2013-07-20 18:12:00,
2013-07-20 14:14:00,82.3,69.2,29.75,NW,308,1.0,11.0,64,0.00,,,2.38,WUHU216DAVISVP2,2013-07-20 18:14:00,
2013-07-20 14:16:00,82.4,69.4,29.75,NNW,341,5.0,11.0,65,0.00,,,2.38,WUHU216DAVISVP2,2013-07-20 18:16:00,
2013-07-20 14:17:00,82.7,69.3,29.75,West,271,7.0,10.0,64,0.00,,,2.38,WUHU216DAVISVP2,2013-07-20 18:17:00,
2013-07-20 14:19:00,82.8,69.8,29.75,NNW,344,2.0,10.0,65,0.00,,,2.38,WUHU216DAVISVP2,2013-07-20 18:19:00,
2013-07-20 14:21:00,82.9,69.9,29.75,NW,324,7.0,10.0,65,0.00,,,2.38,WUHU216DAVISVP2,2013-07-20 18:21:00,
2013-07-20 14:22:00,82.9,69.9,29.75,NW,324,7.0,10.0,65,0.00,,,2.38,WUHU216DAVISVP2,2013-07-20 18:22:00,
2013-07-20 14:23:00,82.9,69.5,29.75,NNW,338,9.0,10.0,64,0.00,,,2.38,WUHU216DAVISVP2,2013-07-20 18:23:00,
2013-07-20 14:24:00,82.9,69.5,29.75,NW,322,4.0,10.0,64,0.00,,,2.38,WUHU216DAVISVP2,2013-07-20 18:24:00,
2013-07-20 14:27:00,82.6,69.9,29.75,NNW,341,7.0,10.0,65,0.00,,,2.38,WUHU216DAVISVP2,2013-07-20 18:27:00,
2013-07-20 14:29:00,82.3,69.2,29.75,NW,325,5.0,10.0,64,0.00,,,2.38,WUHU216DAVISVP2,2013-07-20 18:29:00,
2013-07-20 14:31:00,82.2,69.1,29.75,NNW,335,6.0,10.0,64,0.00,,,2.38,WUHU216DAVISVP2,2013-07-20 18:31:00,
2013-07-20 14:32:00,82.2,69.1,29.75,NNW,335,6.0,10.0,64,0.00,,,2.38,WUHU216DAVISVP2,2013-07-20 18:32:00,
2013-07-20 14:33:00,82.1,69.0,29.75,NNW,348,6.0,10.0,64,0.00,,,2.38,WUHU216DAVISVP2,2013-07-20 18:33:00,
2013-07-20 14:35:00,82.2,69.1,29.75,North,11,6.0,10.0,64,0.00,,,2.38,WUHU216DAVISVP2,2013-07-20 18:35:00,
2013-07-20 14:37:00,82.4,68.3,29.75,NNE,15,4.0,10.0,62,0.00,,,2.38,WUHU216DAVISVP2,2013-07-20 18:37:00,
2013-07-20 14:38:00,82.4,68.3,29.75,NNE,15,4.0,10.0,62,0.00,,,2.38,WUHU216DAVISVP2,2013-07-20 18:38:00,
2013-07-20 14:39:00,82.7,68.6,29.75,North,360,2.0,10.0,62,0.00,,,2.38,WUHU216DAVISVP2,2013-07-20 18:39:00,
2013-07-20 14:40:00,82.8,68.2,29.75,NW,317,7.0,10.0,61,0.00,,,2.38,WUHU216DAVISVP2,2013-07-20 18:40:00,
2013-07-20 14:42:00,82.8,68.0,29.75,North,350,8.0,10.0,61,0.00,,,2.38,WUHU216DAVISVP2,2013-07-20 18:42:00,
2013-07-20 14:43:00,82.8,68.0,29.75,North,350,8.0,10.0,61,0.00,,,2.38,WUHU216DAVISVP2,2013-07-20 18:43:00,
2013-07-20 14:44:00,83.1,68.0,29.75,NW,309,7.0,10.0,60,0.00,,,2.38,WUHU216DAVISVP2,2013-07-20 18:44:00,
2013-07-20 14:45:00,83.1,66.5,29.75,NW,324,5.0,10.0,57,0.00,,,2.38,WUHU216DAVISVP2,2013-07-20 18:45:00,
2013-07-20 14:47:00,83.0,67.4,29.75,NW,306,0.0,10.0,59,0.00,,,2.38,WUHU216DAVISVP2,2013-07-20 18:47:00,
2013-07-20 14:49:00,83.0,67.4,29.75,NW,306,0.0,10.0,59,0.00,,,2.38,WUHU216DAVISVP2,2013-07-20 18:49:00,
2013-07-20 14:51:00,83.4,67.8,29.75,NW,308,5.0,10.0,59,0.00,,,2.38,WUHU216DAVISVP2,2013-07-20 18:51:00,
2013-07-20 14:54:00,83.6,68.0,29.74,WNW,284,7.0,11.0,59,0.00,,,2.38,WUHU216DAVISVP2,2013-07-20 18:54:00,
2013-07-20 14:57:00,83.3,68.7,29.74,NNW,334,5.0,12.0,61,0.00,,,2.38,WUHU216DAVISVP2,2013-07-20 18:57:00,
2013-07-20 14:58:00,83.2,69.1,29.74,NE,36,8.0,12.0,62,0.00,,,2.38,WUHU216DAVISVP2,2013-07-20 18:58:00,
2013-07-20 14:59:00,83.2,69.1,29.74,NE,36,8.0,12.0,62,0.00,,,2.38,WUHU216DAVISVP2,2013-07-20 18:59:00,
2013-07-20 15:00:00,83.2,67.9,29.74,NW,325,4.0,12.0,60,0.00,,,2.38,WUHU216DAVISVP2,2013-07-20 19:00:00,
2013-07-20 15:04:00,83.3,68.9,29.74,WNW,292,5.0,11.0,62,0.00,,,2.38,WUHU216DAVISVP2,2013-07-20 19:04:00,
2013-07-20 15:05:00,83.3,68.9,29.74,WNW,292,5.0,11.0,62,0.00,,,2.38,WUHU216DAVISVP2,2013-07-20 19:05:00,
2013-07-20 15:07:00,83.6,67.3,29.75,North,5,10.0,11.0,58,0.00,,,2.38,WUHU216DAVISVP2,2013-07-20 19:07:00,
2013-07-20 15:10:00,83.8,66.4,29.75,NNW,337,9.0,12.0,56,0.00,,,2.38,WUHU216DAVISVP2,2013-07-20 19:10:00,
2013-07-20 15:12:00,83.9,67.0,29.74,NNW,341,5.0,12.0,57,0.00,,,2.38,WUHU216DAVISVP2,2013-07-20 19:12:00,
2013-07-20 15:14:00,84.1,69.0,29.74,NNW,327,1.0,12.0,60,0.00,,,2.38,WUHU216DAVISVP2,2013-07-20 19:14:00,
2013-07-20 15:15:00,84.1,69.0,29.74,NNW,327,1.0,12.0,60,0.00,,,2.38,WUHU216DAVISVP2,2013-07-20 19:15:00,
2013-07-20 15:17:00,84.2,67.6,29.74,NNW,328,7.0,10.0,57,0.00,,,2.38,WUHU216DAVISVP2,2013-07-20 19:17:00,
2013-07-20 15:19:00,84.1,66.9,29.74,NNW,336,7.0,12.0,56,0.00,,,2.38,WUHU216DAVISVP2,2013-07-20 19:19:00,
2013-07-20 15:21:00,84.1,67.5,29.74,North,355,7.0,12.0,57,0.00,,,2.38,WUHU216DAVISVP2,2013-07-20 19:21:00,
2013-07-20 15:22:00,84.1,68.0,29.73,NNW,344,6.0,12.0,58,0.00,,,2.38,WUHU216DAVISVP2,2013-07-20 19:22:00,
2013-07-20 15:24:00,84.1,66.9,29.74,NNW,344,8.0,12.0,56,0.00,,,2.38,WUHU216DAVISVP2,2013-07-20 19:24:00,
2013-07-20 15:26:00,84.1,66.4,29.74,NNW,329,2.0,12.0,55,0.00,,,2.38,WUHU216DAVISVP2,2013-07-20 19:26:00,
2013-07-20 15:28:00,84.0,66.1,29.74,North,11,8.0,13.0,55,0.00,,,2.38,WUHU216DAVISVP2,2013-07-20 19:28:00,
2013-07-20 15:29:00,84.0,67.6,29.74,NW,315,9.0,13.0,58,0.00,,,2.38,WUHU216DAVISVP2,2013-07-20 19:29:00,
2013-07-20 15:31:00,84.0,67.6,29.74,NW,315,9.0,13.0,58,0.00,,,2.38,WUHU216DAVISVP2,2013-07-20 19:31:00,
2013-07-20 15:33:00,83.9,67.0,29.74,NNW,328,5.0,13.0,57,0.00,,,2.38,WUHU216DAVISVP2,2013-07-20 19:33:00,
2013-07-20 15:35:00,83.8,66.9,29.74,NW,304,9.0,13.0,57,0.00,,,2.38,WUHU216DAVISVP2,2013-07-20 19:35:00,
2013-07-20 15:36:00,83.8,66.9,29.74,NW,304,9.0,13.0,57,0.00,,,2.38,WUHU216DAVISVP2,2013-07-20 19:36:00,
2013-07-20 15:37:00,83.7,66.3,29.74,NNW,327,5.0,13.0,56,0.00,,,2.38,WUHU216DAVISVP2,2013-07-20 19:37:00,
2013-07-20 15:38:00,83.6,65.9,29.74,NNW,339,9.0,10.0,55,0.00,,,2.38,WUHU216DAVISVP2,2013-07-20 19:38:00,
2013-07-20 15:41:00,83.6,66.5,29.74,NNW,330,1.0,10.0,56,0.00,,,2.38,WUHU216DAVISVP2,2013-07-20 19:41:00,
2013-07-20 15:43:00,83.7,67.6,29.74,WNW,284,7.0,10.0,58,0.00,,,2.38,WUHU216DAVISVP2,2013-07-20 19:43:00,
2013-07-20 15:46:00,83.7,66.6,29.74,WNW,294,9.0,11.0,56,0.00,,,2.38,WUHU216DAVISVP2,2013-07-20 19:46:00,
2013-07-20 15:47:00,83.6,67.0,29.74,North,351,8.0,11.0,57,0.00,,,2.38,WUHU216DAVISVP2,2013-07-20 19:47:00,
2013-07-20 15:49:00,83.7,66.3,29.74,NNW,346,2.0,11.0,56,0.00,,,2.38,WUHU216DAVISVP2,2013-07-20 19:49:00,
2013-07-20 15:51:00,83.8,66.4,29.74,North,360,6.0,11.0,56,0.00,,,2.38,WUHU216DAVISVP2,2013-07-20 19:51:00,
2013-07-20 15:52:00,83.8,66.4,29.74,North,360,6.0,11.0,56,0.00,,,2.38,WUHU216DAVISVP2,2013-07-20 19:52:00,
2013-07-20 15:53:00,83.8,65.9,29.74,NW,323,9.0,11.0,55,0.00,,,2.38,WUHU216DAVISVP2,2013-07-20 19:53:00,
2013-07-20 15:54:00,83.8,65.9,29.74,North,355,7.0,12.0,55,0.00,,,2.38,WUHU216DAVISVP2,2013-07-20 19:54:00,
2013-07-20 15:56:00,83.9,66.7,29.74,North,360,7.0,12.0,56,0.00,,,2.38,WUHU216DAVISVP2,2013-07-20 19:56:00,
2013-07-20 15:57:00,83.9,66.7,29.74,North,360,7.0,12.0,56,0.00,,,2.38,WUHU216DAVISVP2,2013-07-20 19:57:00,
2013-07-20 15:58:00,84.0,66.3,29.74,NNW,327,5.0,12.0,55,0.00,,,2.38,WUHU216DAVISVP2,2013-07-20 19:58:00,
2013-07-20 16:00:00,84.0,65.8,29.74,North,9,7.0,12.0,54,0.00,,,2.38,WUHU216DAVISVP2,2013-07-20 20:00:00,
2013-07-20 16:01:00,84.0,66.8,29.74,NW,308,6.0,12.0,56,0.00,,,2.38,WUHU216DAVISVP2,2013-07-20 20:01:00,
2013-07-20 16:02:00,84.0,66.8,29.74,NW,308,6.0,12.0,56,0.00,,,2.38,WUHU216DAVISVP2,2013-07-20 20:02:00,
2013-07-20 16:03:00,84.1,66.4,29.74,NW,304,5.0,12.0,55,0.00,,,2.38,WUHU216DAVISVP2,2013-07-20 20:03:00,
2013-07-20 16:05:00,84.2,67.0,29.74,NNW,336,3.0,11.0,56,0.00,,,2.38,WUHU216DAVISVP2,2013-07-20 20:05:00,
2013-07-20 16:06:00,84.4,66.7,29.74,NNW,336,7.0,10.0,55,0.00,,,2.38,WUHU216DAVISVP2,2013-07-20 20:06:00,
2013-07-20 16:08:00,84.5,66.8,29.74,North,9,5.0,9.0,55,0.00,,,2.38,WUHU216DAVISVP2,2013-07-20 20:08:00,
2013-07-20 16:09:00,84.6,67.4,29.74,NW,320,4.0,9.0,56,0.00,,,2.38,WUHU216DAVISVP2,2013-07-20 20:09:00,
2013-07-20 16:10:00,84.7,66.2,29.75,North,349,9.0,10.0,54,0.00,,,2.38,WUHU216DAVISVP2,2013-07-20 20:10:00,
2013-07-20 16:12:00,84.6,65.0,29.75,North,9,6.0,10.0,52,0.00,,,2.38,WUHU216DAVISVP2,2013-07-20 20:12:00,
2013-07-20 16:13:00,84.6,65.0,29.75,North,9,6.0,10.0,52,0.00,,,2.38,WUHU216DAVISVP2,2013-07-20 20:13:00,
2013-07-20 16:14:00,84.5,66.0,29.74,NW,323,6.0,14.0,54,0.00,,,2.38,WUHU216DAVISVP2,2013-07-20 20:14:00,
2013-07-20 16:16:00,84.5,66.6,29.75,NW,315,6.0,14.0,55,0.00,,,2.38,WUHU216DAVISVP2,2013-07-20 20:16:00,
2013-07-20 16:18:00,84.5,65.5,29.75,NW,319,7.0,14.0,53,0.00,,,2.38,WUHU216DAVISVP2,2013-07-20 20:18:00,
2013-07-20 16:19:00,84.5,65.5,29.75,NNW,345,6.0,14.0,53,0.00,,,2.38,WUHU216DAVISVP2,2013-07-20 20:19:00,
2013-07-20 16:22:00,84.6,64.6,29.74,NW,313,6.0,14.0,51,0.00,,,2.38,WUHU216DAVISVP2,2013-07-20 20:22:00,
2013-07-20 16:23:00,84.6,64.6,29.74,NW,313,6.0,14.0,51,0.00,,,2.38,WUHU216DAVISVP2,2013-07-20 20:23:00,
2013-07-20 16:24:00,84.6,65.8,29.74,North,350,6.0,11.0,53,0.00,,,2.38,WUHU216DAVISVP2,2013-07-20 20:24:00,
2013-07-20 16:25:00,84.6,64.6,29.75,WNW,301,8.0,11.0,51,0.00,,,2.38,WUHU216DAVISVP2,2013-07-20 20:25:00,
2013-07-20 16:27:00,84.7,65.3,29.75,NW,320,6.0,10.0,52,0.00,,,2.38,WUHU216DAVISVP2,2013-07-20 20:27:00,
2013-07-20 16:29:00,84.7,64.1,29.75,NNW,346,10.0,11.0,50,0.00,,,2.38,WUHU216DAVISVP2,2013-07-20 20:29:00,
2013-07-20 16:30:00,84.7,64.7,29.75,WNW,303,7.0,11.0,51,0.00,,,2.38,WUHU216DAVISVP2,2013-07-20 20:30:00,
2013-07-20 16:32:00,84.7,64.1,29.75,NW,312,6.0,11.0,50,0.00,,,2.38,WUHU216DAVISVP2,2013-07-20 20:32:00,
2013-07-20 16:33:00,84.5,64.0,29.75,NW,319,5.0,11.0,50,0.00,,,2.38,WUHU216DAVISVP2,2013-07-20 20:33:00,
2013-07-20 16:34:00,84.5,64.0,29.75,NW,319,5.0,11.0,50,0.00,,,2.38,WUHU216DAVISVP2,2013-07-20 20:34:00,
2013-07-20 16:35:00,84.6,65.2,29.75,NW,309,6.0,11.0,52,0.00,,,2.38,WUHU216DAVISVP2,2013-07-20 20:35:00,
2013-07-20 16:37:00,84.8,64.8,29.75,NW,311,6.0,11.0,51,0.00,,,2.38,WUHU216DAVISVP2,2013-07-20 20:37:00,
2013-07-20 16:39:00,84.8,64.1,29.76,WNW,297,4.0,11.0,50,0.00,,,2.38,WUHU216DAVISVP2,2013-07-20 20:39:00,
2013-07-20 16:40:00,84.7,64.0,29.75,West,274,6.0,11.0,50,0.00,,,2.38,WUHU216DAVISVP2,2013-07-20 20:40:00,
2013-07-20 16:42:00,84.5,63.2,29.75,NNW,346,6.0,11.0,49,0.00,,,2.38,WUHU216DAVISVP2,2013-07-20 20:42:00,
2013-07-20 16:43:00,84.5,63.8,29.75,NNW,332,5.0,11.0,50,0.00,,,2.38,WUHU216DAVISVP2,2013-07-20 20:43:00,
2013-07-20 16:45:00,84.5,63.8,29.75,NNW,332,5.0,11.0,50,0.00,,,2.38,WUHU216DAVISVP2,2013-07-20 20:45:00,
2013-07-20 16:46:00,84.4,64.3,29.75,NNW,340,6.0,11.0,51,0.00,,,2.38,WUHU216DAVISVP2,2013-07-20 20:46:00,
2013-07-20 16:48:00,84.3,64.2,29.75,NNW,327,6.0,9.0,51,0.00,,,2.38,WUHU216DAVISVP2,2013-07-20 20:48:00,
2013-07-20 16:50:00,84.3,63.6,29.75,North,355,5.0,9.0,50,0.00,,,2.38,WUHU216DAVISVP2,2013-07-20 20:50:00,
2013-07-20 16:52:00,84.3,64.8,29.75,WNW,298,6.0,9.0,52,0.00,,,2.38,WUHU216DAVISVP2,2013-07-20 20:52:00,
2013-07-20 16:53:00,84.3,63.6,29.75,NNW,333,7.0,9.0,50,0.00,,,2.38,WUHU216DAVISVP2,2013-07-20 20:53:00,
2013-07-20 16:55:00,84.3,64.9,29.75,NNW,330,7.0,9.0,52,0.00,,,2.38,WUHU216DAVISVP2,2013-07-20 20:55:00,
2013-07-20 16:56:00,84.3,64.9,29.75,NNW,330,7.0,9.0,52,0.00,,,2.38,WUHU216DAVISVP2,2013-07-20 20:56:00,
2013-07-20 16:58:00,84.2,63.5,29.75,NNE,21,5.0,9.0,50,0.00,,,2.38,WUHU216DAVISVP2,2013-07-20 20:58:00,
2013-07-20 17:00:00,84.2,65.2,29.75,WNW,293,5.0,9.0,53,0.00,,,2.38,WUHU216DAVISVP2,2013-07-20 21:00:00,
2013-07-20 17:01:00,84.2,65.2,29.75,WNW,293,5.0,9.0,53,0.00,,,2.38,WUHU216DAVISVP2,2013-07-20 21:01:00,
2013-07-20 17:02:00,84.3,65.8,29.75,NW,316,5.0,9.0,54,0.00,,,2.38,WUHU216DAVISVP2,2013-07-20 21:02:00,
2013-07-20 17:03:00,84.5,64.4,29.75,NW,306,6.0,11.0,51,0.00,,,2.38,WUHU216DAVISVP2,2013-07-20 21:03:00,
2013-07-20 17:05:00,84.6,63.3,29.75,NNW,338,8.0,11.0,49,0.00,,,2.38,WUHU216DAVISVP2,2013-07-20 21:05:00,
2013-07-20 17:06:00,84.6,63.3,29.75,NNW,338,8.0,11.0,49,0.00,,,2.38,WUHU216DAVISVP2,2013-07-20 21:06:00,
2013-07-20 17:07:00,84.7,63.4,29.75,NNE,13,7.0,11.0,49,0.00,,,2.38,WUHU216DAVISVP2,2013-07-20 21:07:00,
2013-07-20 17:08:00,84.5,64.0,29.75,North,355,8.0,11.0,50,0.00,,,2.38,WUHU216DAVISVP2,2013-07-20 21:08:00,
2013-07-20 17:10:00,84.5,64.5,29.75,NNW,332,7.0,11.0,51,0.00,,,2.38,WUHU216DAVISVP2,2013-07-20 21:10:00,
2013-07-20 17:12:00,84.5,64.5,29.75,NNW,332,7.0,11.0,51,0.00,,,2.38,WUHU216DAVISVP2,2013-07-20 21:12:00,
2013-07-20 17:13:00,84.4,64.5,29.75,WNW,286,7.0,11.0,51,0.00,,,2.38,WUHU216DAVISVP2,2013-07-20 21:13:00,
2013-07-20 17:15:00,84.3,63.2,29.75,NW,319,1.0,11.0,49,0.00,,,2.38,WUHU216DAVISVP2,2013-07-20 21:15:00,
2013-07-20 17:16:00,84.3,63.8,29.75,NNW,328,6.0,11.0,50,0.00,,,2.38,WUHU216DAVISVP2,2013-07-20 21:16:00,
2013-07-20 17:17:00,84.3,63.8,29.75,NNW,328,6.0,11.0,50,0.00,,,2.38,WUHU216DAVISVP2,2013-07-20 21:17:00,
2013-07-20 17:19:00,84.2,64.1,29.75,North,360,5.0,10.0,51,0.00,,,2.38,WUHU216DAVISVP2,2013-07-20 21:19:00,
2013-07-20 17:21:00,84.1,63.5,29.75,NW,316,5.0,10.0,50,0.00,,,2.38,WUHU216DAVISVP2,2013-07-20 21:21:00,
2013-07-20 17:22:00,84.1,64.6,29.75,NW,319,6.0,10.0,52,0.00,,,2.38,WUHU216DAVISVP2,2013-07-20 21:22:00,
2013-07-20 17:24:00,84.1,64.0,29.75,NNW,344,6.0,10.0,51,0.00,,,2.38,WUHU216DAVISVP2,2013-07-20 21:24:00,
2013-07-20 17:26:00,84.1,63.5,29.75,NNW,336,5.0,10.0,50,0.00,,,2.38,WUHU216DAVISVP2,2013-07-20 21:26:00,
2013-07-20 17:27:00,84.0,64.7,29.75,NW,315,7.0,10.0,52,0.00,,,2.38,WUHU216DAVISVP2,2013-07-20 21:27:00,
2013-07-20 17:28:00,84.0,64.7,29.75,NW,315,7.0,10.0,52,0.00,,,2.38,WUHU216DAVISVP2,2013-07-20 21:28:00,
2013-07-20 17:29:00,84.0,64.7,29.75,NW,312,6.0,10.0,52,0.00,,,2.38,WUHU216DAVISVP2,2013-07-20 21:29:00,
2013-07-20 17:32:00,84.1,64.2,29.75,NNW,343,3.0,10.0,51,0.00,,,2.38,WUHU216DAVISVP2,2013-07-20 21:32:00,
2013-07-20 17:33:00,84.1,64.2,29.75,NNW,343,3.0,10.0,51,0.00,,,2.38,WUHU216DAVISVP2,2013-07-20 21:33:00,
2013-07-20 17:35:00,84.2,64.8,29.75,NNW,327,7.0,11.0,52,0.00,,,2.38,WUHU216DAVISVP2,2013-07-20 21:35:00,
2013-07-20 17:37:00,84.2,65.4,29.75,NNW,342,7.0,11.0,53,0.00,,,2.38,WUHU216DAVISVP2,2013-07-20 21:37:00,
2013-07-20 17:38:00,84.2,65.4,29.75,NNW,342,7.0,11.0,53,0.00,,,2.38,WUHU216DAVISVP2,2013-07-20 21:38:00,
2013-07-20 17:39:00,84.1,65.3,29.75,NNW,338,6.0,11.0,53,0.00,,,2.38,WUHU216DAVISVP2,2013-07-20 21:39:00,
2013-07-20 17:43:00,83.8,64.5,29.75,NW,306,7.0,10.0,52,0.00,,,2.38,WUHU216DAVISVP2,2013-07-20 21:43:00,
2013-07-20 17:45:00,83.6,64.8,29.75,NW,315,0.0,10.0,53,0.00,,,2.38,WUHU216DAVISVP2,2013-07-20 21:45:00,
2013-07-20 17:47:00,83.6,65.4,29.75,NNW,341,5.0,10.0,54,0.00,,,2.38,WUHU216DAVISVP2,2013-07-20 21:47:00,
2013-07-20 17:48:00,83.6,65.4,29.75,NNW,327,6.0,10.0,54,0.00,,,2.38,WUHU216DAVISVP2,2013-07-20 21:48:00,
2013-07-20 17:50:00,83.6,64.8,29.75,NNW,347,6.0,10.0,53,0.00,,,2.38,WUHU216DAVISVP2,2013-07-20 21:50:00,
2013-07-20 17:52:00,83.6,64.3,29.75,North,355,5.0,9.0,52,0.00,,,2.38,WUHU216DAVISVP2,2013-07-20 21:52:00,
2013-07-20 17:54:00,83.6,64.3,29.75,NNW,329,4.0,9.0,52,0.00,,,2.38,WUHU216DAVISVP2,2013-07-20 21:54:00,
2013-07-20 17:58:00,83.9,66.2,29.75,WNW,296,4.0,9.0,55,0.00,,,2.38,WUHU216DAVISVP2,2013-07-20 21:58:00,
2013-07-20 17:59:00,83.9,66.2,29.75,WNW,296,4.0,9.0,55,0.00,,,2.38,WUHU216DAVISVP2,2013-07-20 21:59:00,
2013-07-20 18:00:00,84.0,65.8,29.75,North,11,4.0,9.0,54,0.00,,,2.38,WUHU216DAVISVP2,2013-07-20 22:00:00,
2013-07-20 18:02:00,84.0,66.3,29.75,North,355,6.0,7.0,55,0.00,,,2.38,WUHU216DAVISVP2,2013-07-20 22:02:00,
2013-07-20 18:03:00,84.1,66.4,29.75,North,355,4.0,7.0,55,0.00,,,2.38,WUHU216DAVISVP2,2013-07-20 22:03:00,
2013-07-20 18:05:00,84.1,66.4,29.75,North,355,4.0,7.0,55,0.00,,,2.38,WUHU216DAVISVP2,2013-07-20 22:05:00,
2013-07-20 18:06:00,84.2,64.8,29.75,NNW,343,6.0,8.0,52,0.00,,,2.38,WUHU216DAVISVP2,2013-07-20 22:06:00,
2013-07-20 18:08:00,84.1,66.4,29.75,NW,317,5.0,8.0,55,0.00,,,2.38,WUHU216DAVISVP2,2013-07-20 22:08:00,
2013-07-20 18:10:00,84.1,65.3,29.75,North,351,5.0,8.0,53,0.00,,,2.38,WUHU216DAVISVP2,2013-07-20 22:10:00,
2013-07-20 18:11:00,83.9,65.7,29.75,NNW,340,6.0,8.0,54,0.00,,,2.38,WUHU216DAVISVP2,2013-07-20 22:11:00,
2013-07-20 18:14:00,83.9,65.7,29.75,NW,310,5.0,8.0,54,0.00,,,2.38,WUHU216DAVISVP2,2013-07-20 22:14:00,
2013-07-20 18:15:00,83.9,65.7,29.75,NW,310,5.0,8.0,54,0.00,,,2.38,WUHU216DAVISVP2,2013-07-20 22:15:00,
2013-07-20 18:16:00,83.9,65.7,29.75,North,9,5.0,8.0,54,0.00,,,2.38,WUHU216DAVISVP2,2013-07-20 22:16:00,
2013-07-20 18:18:00,83.9,65.7,29.75,North,360,5.0,9.0,54,0.00,,,2.38,WUHU216DAVISVP2,2013-07-20 22:18:00,
2013-07-20 18:19:00,83.9,66.2,29.75,North,355,5.0,9.0,55,0.00,,,2.38,WUHU216DAVISVP2,2013-07-20 22:19:00,
2013-07-20 18:21:00,83.9,66.2,29.75,North,355,5.0,9.0,55,0.00,,,2.38,WUHU216DAVISVP2,2013-07-20 22:21:00,
2013-07-20 18:23:00,83.9,65.1,29.75,NW,315,3.0,9.0,53,0.00,,,2.38,WUHU216DAVISVP2,2013-07-20 22:23:00,
2013-07-20 18:25:00,84.0,66.3,29.75,NW,317,5.0,9.0,55,0.00,,,2.38,WUHU216DAVISVP2,2013-07-20 22:25:00,
2013-07-20 18:26:00,84.0,66.3,29.75,NW,317,5.0,9.0,55,0.00,,,2.38,WUHU216DAVISVP2,2013-07-20 22:26:00,
2013-07-20 18:27:00,84.0,64.7,29.75,NNE,15,5.0,12.0,52,0.00,,,2.38,WUHU216DAVISVP2,2013-07-20 22:27:00,
2013-07-20 18:28:00,83.9,63.4,29.75,NW,304,6.0,12.0,50,0.00,,,2.38,WUHU216DAVISVP2,2013-07-20 22:28:00,
2013-07-20 18:31:00,83.8,63.3,29.75,NNW,331,4.0,12.0,50,0.00,,,2.38,WUHU216DAVISVP2,2013-07-20 22:31:00,
2013-07-20 18:32:00,83.7,63.8,29.75,NW,319,4.0,12.0,51,0.00,,,2.38,WUHU216DAVISVP2,2013-07-20 22:32:00,
2013-07-20 18:34:00,83.6,63.7,29.75,North,11,7.0,12.0,51,0.00,,,2.38,WUHU216DAVISVP2,2013-07-20 22:34:00,
2013-07-20 18:36:00,83.5,63.0,29.75,NW,319,6.0,10.0,50,0.00,,,2.38,WUHU216DAVISVP2,2013-07-20 22:36:00,
2013-07-20 18:38:00,83.4,64.1,29.75,WNW,300,5.0,10.0,52,0.00,,,2.38,WUHU216DAVISVP2,2013-07-20 22:38:00,
2013-07-20 18:41:00,83.3,63.4,29.75,WNW,302,7.0,10.0,51,0.00,,,2.38,WUHU216DAVISVP2,2013-07-20 22:41:00,
2013-07-20 18:42:00,83.2,63.3,29.75,NW,324,6.0,10.0,51,0.00,,,2.38,WUHU216DAVISVP2,2013-07-20 22:42:00,
2013-07-20 18:43:00,83.2,63.9,29.75,NW,309,4.0,10.0,52,0.00,,,2.38,WUHU216DAVISVP2,2013-07-20 22:43:00,
2013-07-20 18:45:00,83.1,64.4,29.75,NW,304,1.0,10.0,53,0.00,,,2.38,WUHU216DAVISVP2,2013-07-20 22:45:00,
2013-07-20 18:47:00,83.1,64.4,29.75,NW,304,1.0,10.0,53,0.00,,,2.38,WUHU216DAVISVP2,2013-07-20 22:47:00,
2013-07-20 18:49:00,83.0,63.2,29.75,North,11,3.0,7.0,51,0.00,,,2.38,WUHU216DAVISVP2,2013-07-20 22:49:00,
2013-07-20 18:51:00,82.9,63.6,29.75,NNW,335,8.0,8.0,52,0.00,,,2.38,WUHU216DAVISVP2,2013-07-20 22:51:00,
2013-07-20 18:53:00,82.9,64.2,29.75,North,355,3.0,8.0,53,0.00,,,2.38,WUHU216DAVISVP2,2013-07-20 22:53:00,
2013-07-20 18:54:00,82.8,64.1,29.75,NNW,343,1.0,8.0,53,0.00,,,2.38,WUHU216DAVISVP2,2013-07-20 22:54:00,
2013-07-20 18:56:00,82.8,63.5,29.75,NNW,336,4.0,8.0,52,0.00,,,2.38,WUHU216DAVISVP2,2013-07-20 22:56:00,
2013-07-20 18:58:00,82.9,64.2,29.75,NNW,336,1.0,8.0,53,0.00,,,2.38,WUHU216DAVISVP2,2013-07-20 22:58:00,
2013-07-20 19:00:00,82.9,63.6,29.75,North,5,4.0,8.0,52,0.00,,,2.38,WUHU216DAVISVP2,2013-07-20 23:00:00,
2013-07-20 19:03:00,82.9,63.6,29.76,NNW,348,1.0,7.0,52,0.00,,,2.38,WUHU216DAVISVP2,2013-07-20 23:03:00,
2013-07-20 19:06:00,82.9,64.2,29.76,NW,314,5.0,7.0,53,0.00,,,2.38,WUHU216DAVISVP2,2013-07-20 23:06:00,
2013-07-20 19:08:00,82.8,63.5,29.76,NW,315,2.0,7.0,52,0.00,,,2.38,WUHU216DAVISVP2,2013-07-20 23:08:00,
2013-07-20 19:09:00,82.7,63.3,29.76,NNW,327,4.0,6.0,52,0.00,,,2.38,WUHU216DAVISVP2,2013-07-20 23:09:00,
2013-07-20 19:11:00,82.6,63.7,29.76,NNW,341,1.0,6.0,53,0.00,,,2.38,WUHU216DAVISVP2,2013-07-20 23:11:00,
2013-07-20 19:13:00,82.5,63.6,29.76,NNW,341,1.0,6.0,53,0.00,,,2.38,WUHU216DAVISVP2,2013-07-20 23:13:00,
2013-07-20 19:14:00,82.5,63.6,29.76,NW,325,2.0,6.0,53,0.00,,,2.38,WUHU216DAVISVP2,2013-07-20 23:14:00,
2013-07-20 19:16:00,82.4,63.7,29.76,NNW,343,2.0,6.0,53,0.00,,,2.38,WUHU216DAVISVP2,2013-07-20 23:16:00,
2013-07-20 19:17:00,82.3,63.6,29.76,NW,307,4.0,6.0,53,0.00,,,2.38,WUHU216DAVISVP2,2013-07-20 23:17:00,
2013-07-20 19:18:00,82.3,63.6,29.76,NW,307,4.0,6.0,53,0.00,,,2.38,WUHU216DAVISVP2,2013-07-20 23:18:00,
2013-07-20 19:19:00,82.2,63.5,29.76,NNW,342,4.0,6.0,53,0.00,,,2.38,WUHU216DAVISVP2,2013-07-20 23:19:00,
2013-07-20 19:21:00,82.1,64.0,29.76,NNW,340,2.0,6.0,54,0.00,,,2.38,WUHU216DAVISVP2,2013-07-20 23:21:00,
2013-07-20 19:23:00,82.0,63.9,29.76,NNW,340,1.0,6.0,54,0.00,,,2.38,WUHU216DAVISVP2,2013-07-20 23:23:00,
2013-07-20 19:24:00,82.0,63.9,29.76,NNW,340,1.0,6.0,54,0.00,,,2.38,WUHU216DAVISVP2,2013-07-20 23:24:00,
2013-07-20 19:26:00,82.0,64.4,29.76,NNW,338,2.0,5.0,55,0.00,,,2.38,WUHU216DAVISVP2,2013-07-20 23:26:00,
2013-07-20 19:28:00,82.0,64.4,29.76,NW,323,0.0,5.0,55,0.00,,,2.38,WUHU216DAVISVP2,2013-07-20 23:28:00,
2013-07-20 19:29:00,82.0,64.4,29.76,NW,323,0.0,5.0,55,0.00,,,2.38,WUHU216DAVISVP2,2013-07-20 23:29:00,
2013-07-20 19:30:00,81.9,64.3,29.76,NNW,335,3.0,5.0,55,0.00,,,2.38,WUHU216DAVISVP2,2013-07-20 23:30:00,
2013-07-20 19:31:00,81.9,64.3,29.77,NW,323,2.0,5.0,55,0.00,,,2.38,WUHU216DAVISVP2,2013-07-20 23:31:00,
2013-07-20 19:35:00,82.0,65.0,29.77,NW,324,0.0,5.0,56,0.00,,,2.38,WUHU216DAVISVP2,2013-07-20 23:35:00,
2013-07-20 19:37:00,82.0,65.0,29.76,NW,324,3.0,5.0,56,0.00,,,2.38,WUHU216DAVISVP2,2013-07-20 23:37:00,
2013-07-20 19:38:00,82.0,64.4,29.76,North,355,5.0,5.0,55,0.00,,,2.38,WUHU216DAVISVP2,2013-07-20 23:38:00,
2013-07-20 19:40:00,81.9,64.9,29.76,NW,323,5.0,5.0,56,0.00,,,2.38,WUHU216DAVISVP2,2013-07-20 23:40:00,
2013-07-20 19:42:00,81.9,64.9,29.76,NNW,331,3.0,5.0,56,0.00,,,2.38,WUHU216DAVISVP2,2013-07-20 23:42:00,
2013-07-20 19:43:00,81.7,65.2,29.77,NNW,340,4.0,5.0,57,0.00,,,2.38,WUHU216DAVISVP2,2013-07-20 23:43:00,
2013-07-20 19:46:00,81.7,65.2,29.77,NNW,329,2.0,5.0,57,0.00,,,2.38,WUHU216DAVISVP2,2013-07-20 23:46:00,
2013-07-20 19:47:00,81.7,66.2,29.76,NNW,335,1.0,5.0,59,0.00,,,2.38,WUHU216DAVISVP2,2013-07-20 23:47:00,
2013-07-20 19:48:00,81.7,66.2,29.76,NNW,335,1.0,5.0,59,0.00,,,2.38,WUHU216DAVISVP2,2013-07-20 23:48:00,
2013-07-20 19:53:00,81.6,66.6,29.77,NNW,348,2.0,5.0,60,0.00,,,2.38,WUHU216DAVISVP2,2013-07-20 23:53:00,
2013-07-20 19:55:00,81.6,66.1,29.77,North,9,1.0,5.0,59,0.00,,,2.38,WUHU216DAVISVP2,2013-07-20 23:55:00,
2013-07-20 19:56:00,81.6,66.1,29.77,North,9,1.0,5.0,59,0.00,,,2.38,WUHU216DAVISVP2,2013-07-20 23:56:00,
2013-07-20 19:58:00,81.6,66.1,29.77,North,9,0.0,5.0,59,0.00,,,2.38,WUHU216DAVISVP2,2013-07-20 23:58:00,
2013-07-20 19:59:00,81.6,66.1,29.77,North,9,0.0,5.0,59,0.00,,,2.38,WUHU216DAVISVP2,2013-07-20 23:59:00,
2013-07-20 20:00:00,81.6,66.1,29.77,North,9,0.0,5.0,59,0.00,,,2.38,WUHU216DAVISVP2,2013-07-21 00:00:00,
2013-07-20 20:02:00,81.6,66.6,29.77,North,9,0.0,5.0,60,0.00,,,2.38,WUHU216DAVISVP2,2013-07-21 00:02:00,
2013-07-20 20:04:00,81.6,66.6,29.77,North,9,0.0,3.0,60,0.00,,,2.38,WUHU216DAVISVP2,2013-07-21 00:04:00,
2013-07-20 20:05:00,81.6,66.1,29.77,North,9,0.0,2.0,59,0.00,,,2.38,WUHU216DAVISVP2,2013-07-21 00:05:00,
2013-07-20 20:08:00,81.6,66.1,29.77,North,9,0.0,0.0,59,0.00,,,2.38,WUHU216DAVISVP2,2013-07-21 00:08:00,
2013-07-20 20:09:00,81.6,66.1,29.77,North,9,0.0,0.0,59,0.00,,,2.38,WUHU216DAVISVP2,2013-07-21 00:09:00,
2013-07-20 20:11:00,81.6,66.6,29.77,North,9,0.0,0.0,60,0.00,,,2.38,WUHU216DAVISVP2,2013-07-21 00:11:00,
2013-07-20 20:13:00,81.6,67.1,29.77,North,9,0.0,0.0,61,0.00,,,2.38,WUHU216DAVISVP2,2013-07-21 00:13:00,
2013-07-20 20:14:00,81.6,67.1,29.77,North,9,0.0,0.0,61,0.00,,,2.38,WUHU216DAVISVP2,2013-07-21 00:14:00,
2013-07-20 20:15:00,81.6,67.1,29.77,North,9,0.0,0.0,61,0.00,,,2.38,WUHU216DAVISVP2,2013-07-21 00:15:00,
2013-07-20 20:18:00,81.5,66.0,29.78,North,9,0.0,0.0,59,0.00,,,2.38,WUHU216DAVISVP2,2013-07-21 00:18:00,
2013-07-20 20:19:00,81.5,66.0,29.78,North,9,0.0,0.0,59,0.00,,,2.38,WUHU216DAVISVP2,2013-07-21 00:19:00,
2013-07-20 20:21:00,81.5,67.0,29.77,North,9,0.0,0.0,61,0.00,,,2.38,WUHU216DAVISVP2,2013-07-21 00:21:00,
2013-07-20 20:23:00,81.5,67.0,29.78,North,9,0.0,0.0,61,0.00,,,2.38,WUHU216DAVISVP2,2013-07-21 00:23:00,
2013-07-20 20:25:00,81.4,65.9,29.78,North,9,0.0,0.0,59,0.00,,,2.38,WUHU216DAVISVP2,2013-07-21 00:25:00,
2013-07-20 20:26:00,81.4,65.9,29.78,North,9,0.0,0.0,59,0.00,,,2.38,WUHU216DAVISVP2,2013-07-21 00:26:00,
2013-07-20 20:28:00,81.2,65.2,29.78,North,9,0.0,0.0,58,0.00,,,2.38,WUHU216DAVISVP2,2013-07-21 00:28:00,
2013-07-20 20:30:00,81.1,65.2,29.78,North,9,0.0,0.0,58,0.00,,,2.38,WUHU216DAVISVP2,2013-07-21 00:30:00,
2013-07-20 20:32:00,81.0,65.1,29.78,North,9,0.0,0.0,58,0.00,,,2.38,WUHU216DAVISVP2,2013-07-21 00:32:00,
2013-07-20 20:33:00,80.8,64.9,29.78,North,9,0.0,0.0,58,0.00,,,2.38,WUHU216DAVISVP2,2013-07-21 00:33:00,
2013-07-20 20:35:00,80.7,65.8,29.78,North,9,0.0,0.0,60,0.00,,,2.38,WUHU216DAVISVP2,2013-07-21 00:35:00,
2013-07-20 20:38:00,80.5,66.1,29.78,North,9,0.0,0.0,61,0.00,,,2.38,WUHU216DAVISVP2,2013-07-21 00:38:00,
2013-07-20 20:40:00,80.5,65.8,29.78,North,9,0.0,0.0,61,0.00,,,2.38,WUHU216DAVISVP2,2013-07-21 00:40:00,
2013-07-20 20:41:00,80.5,65.8,29.78,North,9,0.0,0.0,61,0.00,,,2.38,WUHU216DAVISVP2,2013-07-21 00:41:00,
2013-07-20 20:43:00,80.2,66.5,29.78,North,9,0.0,0.0,63,0.00,,,2.38,WUHU216DAVISVP2,2013-07-21 00:43:00,
2013-07-20 20:45:00,80.1,66.4,29.78,North,9,0.0,0.0,63,0.00,,,2.38,WUHU216DAVISVP2,2013-07-21 00:45:00,
2013-07-20 20:46:00,80.1,66.4,29.78,North,9,0.0,0.0,63,0.00,,,2.38,WUHU216DAVISVP2,2013-07-21 00:46:00,
2013-07-20 20:47:00,79.9,66.4,29.78,North,9,0.0,0.0,63,0.00,,,2.38,WUHU216DAVISVP2,2013-07-21 00:47:00,
2013-07-20 20:48:00,79.7,66.7,29.78,North,9,0.0,0.0,64,0.00,,,2.38,WUHU216DAVISVP2,2013-07-21 00:48:00,
2013-07-20 20:50:00,79.5,65.1,29.78,North,9,0.0,0.0,61,0.00,,,2.38,WUHU216DAVISVP2,2013-07-21 00:50:00,
2013-07-20 20:51:00,79.5,65.1,29.78,North,9,0.0,0.0,61,0.00,,,2.38,WUHU216DAVISVP2,2013-07-21 00:51:00,
2013-07-20 20:53:00,79.2,65.8,29.78,North,9,0.0,0.0,63,0.00,,,2.38,WUHU216DAVISVP2,2013-07-21 00:53:00,
2013-07-20 20:54:00,79.0,66.5,29.78,North,9,0.0,0.0,65,0.00,,,2.38,WUHU216DAVISVP2,2013-07-21 00:54:00,
2013-07-20 20:56:00,78.7,67.9,29.78,North,9,0.0,0.0,69,0.00,,,2.38,WUHU216DAVISVP2,2013-07-21 00:56:00,
2013-07-20 20:57:00,78.7,67.9,29.78,North,9,0.0,0.0,69,0.00,,,2.38,WUHU216DAVISVP2,2013-07-21 00:57:00,
2013-07-20 20:59:00,77.9,65.9,29.78,North,349,4.0,8.0,66,0.00,,,2.38,WUHU216DAVISVP2,2013-07-21 00:59:00,
2013-07-20 21:01:00,77.6,65.1,29.78,NNW,345,3.0,8.0,65,0.00,,,2.38,WUHU216DAVISVP2,2013-07-21 01:01:00,
2013-07-20 21:02:00,77.6,65.1,29.78,NNW,345,3.0,8.0,65,0.00,,,2.38,WUHU216DAVISVP2,2013-07-21 01:02:00,
2013-07-20 21:03:00,77.3,64.8,29.78,North,9,6.0,8.0,65,0.00,,,2.38,WUHU216DAVISVP2,2013-07-21 01:03:00,
2013-07-20 21:05:00,77.1,64.7,29.78,NNE,25,3.0,9.0,65,0.00,,,2.38,WUHU216DAVISVP2,2013-07-21 01:05:00,
2013-07-20 21:06:00,77.0,64.6,29.78,North,9,4.0,9.0,65,0.00,,,2.38,WUHU216DAVISVP2,2013-07-21 01:06:00,
2013-07-20 21:07:00,77.0,64.6,29.78,North,9,4.0,9.0,65,0.00,,,2.38,WUHU216DAVISVP2,2013-07-21 01:07:00,
2013-07-20 21:08:00,76.9,64.9,29.78,North,355,1.0,9.0,66,0.00,,,2.38,WUHU216DAVISVP2,2013-07-21 01:08:00,
2013-07-20 21:09:00,76.8,64.8,29.78,North,355,4.0,9.0,66,0.00,,,2.38,WUHU216DAVISVP2,2013-07-21 01:09:00,
2013-07-20 21:11:00,76.7,64.7,29.78,North,355,0.0,9.0,66,0.00,,,2.38,WUHU216DAVISVP2,2013-07-21 01:11:00,
2013-07-20 21:13:00,76.7,64.7,29.78,North,355,0.0,9.0,66,0.00,,,2.38,WUHU216DAVISVP2,2013-07-21 01:13:00,
2013-07-20 21:15:00,76.5,64.3,29.78,North,350,4.0,7.0,66,0.00,,,2.38,WUHU216DAVISVP2,2013-07-21 01:15:00,
2013-07-20 21:16:00,76.3,64.1,29.79,NNW,340,5.0,7.0,66,0.00,,,2.38,WUHU216DAVISVP2,2013-07-21 01:16:00,
2013-07-20 21:18:00,76.3,64.1,29.79,NNW,340,5.0,7.0,66,0.00,,,2.38,WUHU216DAVISVP2,2013-07-21 01:18:00,
2013-07-20 21:20:00,76.1,64.3,29.79,North,5,7.0,7.0,67,0.00,,,2.38,WUHU216DAVISVP2,2013-07-21 01:20:00,
2013-07-20 21:23:00,76.1,63.9,29.79,North,5,2.0,8.0,66,0.00,,,2.38,WUHU216DAVISVP2,2013-07-21 01:23:00,
2013-07-20 21:25:00,75.9,64.2,29.79,NNW,342,2.0,8.0,67,0.00,,,2.38,WUHU216DAVISVP2,2013-07-21 01:25:00,
2013-07-20 21:27:00,75.8,64.1,29.79,NNE,23,5.0,8.0,67,0.00,,,2.38,WUHU216DAVISVP2,2013-07-21 01:27:00,
2013-07-20 21:28:00,75.7,64.0,29.79,North,11,4.0,8.0,67,0.00,,,2.38,WUHU216DAVISVP2,2013-07-21 01:28:00,
2013-07-20 21:30:00,75.6,63.9,29.79,North,360,0.0,8.0,67,0.00,,,2.38,WUHU216DAVISVP2,2013-07-21 01:30:00,
2013-07-20 21:32:00,75.5,63.8,29.79,NNE,30,5.0,6.0,67,0.00,,,2.38,WUHU216DAVISVP2,2013-07-21 01:32:00,
2013-07-20 21:33:00,75.5,63.8,29.79,NNE,30,5.0,6.0,67,0.00,,,2.38,WUHU216DAVISVP2,2013-07-21 01:33:00,
2013-07-20 21:35:00,75.4,64.3,29.80,North,350,0.0,6.0,68,0.00,,,2.38,WUHU216DAVISVP2,2013-07-21 01:35:00,
2013-07-20 21:37:00,75.3,64.2,29.80,NNE,28,4.0,6.0,68,0.00,,,2.38,WUHU216DAVISVP2,2013-07-21 01:37:00,
2013-07-20 21:39:00,75.2,64.1,29.80,NNE,17,2.0,6.0,68,0.00,,,2.38,WUHU216DAVISVP2,2013-07-21 01:39:00,
2013-07-20 21:40:00,75.1,64.0,29.80,North,355,1.0,6.0,68,0.00,,,2.38,WUHU216DAVISVP2,2013-07-21 01:40:00,
2013-07-20 21:41:00,75.0,63.9,29.80,North,360,0.0,6.0,68,0.00,,,2.38,WUHU216DAVISVP2,2013-07-21 01:41:00,
2013-07-20 21:43:00,75.0,63.9,29.80,North,360,0.0,6.0,68,0.00,,,2.38,WUHU216DAVISVP2,2013-07-21 01:43:00,
2013-07-20 21:44:00,75.0,63.9,29.80,North,360,0.0,6.0,68,0.00,,,2.38,WUHU216DAVISVP2,2013-07-21 01:44:00,
2013-07-20 21:45:00,74.9,63.8,29.80,North,360,0.0,6.0,68,0.00,,,2.38,WUHU216DAVISVP2,2013-07-21 01:45:00,
2013-07-20 21:46:00,74.8,63.7,29.80,North,360,0.0,6.0,68,0.00,,,2.38,WUHU216DAVISVP2,2013-07-21 01:46:00,
2013-07-20 21:48:00,74.7,64.1,29.81,North,360,0.0,3.0,69,0.00,,,2.38,WUHU216DAVISVP2,2013-07-21 01:48:00,
2013-07-20 21:49:00,74.7,64.1,29.81,North,360,0.0,3.0,69,0.00,,,2.38,WUHU216DAVISVP2,2013-07-21 01:49:00,
2013-07-20 21:51:00,74.6,64.0,29.81,North,360,0.0,1.0,69,0.00,,,2.38,WUHU216DAVISVP2,2013-07-21 01:51:00,
2013-07-20 21:53:00,74.5,64.3,29.81,North,360,0.0,1.0,70,0.00,,,2.38,WUHU216DAVISVP2,2013-07-21 01:53:00,
2013-07-20 21:54:00,74.4,64.2,29.81,North,360,0.0,1.0,70,0.00,,,2.38,WUHU216DAVISVP2,2013-07-21 01:54:00,
2013-07-20 21:56:00,74.4,64.2,29.81,North,360,0.0,1.0,70,0.00,,,2.38,WUHU216DAVISVP2,2013-07-21 01:56:00,
2013-07-20 21:58:00,74.3,64.1,29.81,North,360,0.0,1.0,70,0.00,,,2.38,WUHU216DAVISVP2,2013-07-21 01:58:00,
2013-07-20 21:59:00,74.2,64.0,29.81,North,360,0.0,1.0,70,0.00,,,2.38,WUHU216DAVISVP2,2013-07-21 01:59:00,
2013-07-20 22:00:00,74.2,64.0,29.81,North,360,0.0,1.0,70,0.00,,,2.38,WUHU216DAVISVP2,2013-07-21 02:00:00,
2013-07-20 22:01:00,74.1,64.3,29.81,North,360,0.0,1.0,71,0.00,,,2.38,WUHU216DAVISVP2,2013-07-21 02:01:00,
2013-07-20 22:03:00,74.0,63.8,29.82,North,360,1.0,1.0,70,0.00,,,2.38,WUHU216DAVISVP2,2013-07-21 02:03:00,
2013-07-20 22:04:00,74.0,64.2,29.82,North,360,0.0,1.0,71,0.00,,,2.38,WUHU216DAVISVP2,2013-07-21 02:04:00,
2013-07-20 22:05:00,74.0,64.2,29.82,North,360,0.0,1.0,71,0.00,,,2.38,WUHU216DAVISVP2,2013-07-21 02:05:00,
2013-07-20 22:06:00,73.9,64.1,29.81,North,360,0.0,1.0,71,0.00,,,2.38,WUHU216DAVISVP2,2013-07-21 02:06:00,
2013-07-20 22:08:00,73.8,64.0,29.82,North,360,0.0,1.0,71,0.00,,,2.38,WUHU216DAVISVP2,2013-07-21 02:08:00,
2013-07-20 22:10:00,73.7,63.9,29.82,North,360,0.0,1.0,71,0.00,,,2.38,WUHU216DAVISVP2,2013-07-21 02:10:00,
2013-07-20 22:12:00,73.6,63.8,29.82,North,360,0.0,1.0,71,0.00,,,2.38,WUHU216DAVISVP2,2013-07-21 02:12:00,
2013-07-20 22:14:00,73.5,63.7,29.82,North,360,0.0,1.0,71,0.00,,,2.38,WUHU216DAVISVP2,2013-07-21 02:14:00,
2013-07-20 22:15:00,73.5,63.7,29.82,North,360,0.0,1.0,71,0.00,,,2.38,WUHU216DAVISVP2,2013-07-21 02:15:00,
2013-07-20 22:16:00,73.4,64.0,29.82,North,360,0.0,1.0,72,0.00,,,2.38,WUHU216DAVISVP2,2013-07-21 02:16:00,
2013-07-20 22:18:00,73.3,63.9,29.82,North,360,0.0,1.0,72,0.00,,,2.38,WUHU216DAVISVP2,2013-07-21 02:18:00,
2013-07-20 22:20:00,73.3,63.9,29.82,North,360,0.0,1.0,72,0.00,,,2.38,WUHU216DAVISVP2,2013-07-21 02:20:00,
2013-07-20 22:22:00,73.2,63.8,29.82,North,360,0.0,1.0,72,0.00,,,2.38,WUHU216DAVISVP2,2013-07-21 02:22:00,
2013-07-20 22:24:00,73.1,63.7,29.83,North,360,0.0,1.0,72,0.00,,,2.38,WUHU216DAVISVP2,2013-07-21 02:24:00,
2013-07-20 22:25:00,73.1,63.7,29.83,North,360,0.0,1.0,72,0.00,,,2.38,WUHU216DAVISVP2,2013-07-21 02:25:00,
2013-07-20 22:29:00,73.0,64.0,29.82,North,360,0.0,1.0,73,0.00,,,2.38,WUHU216DAVISVP2,2013-07-21 02:29:00,
2013-07-20 22:30:00,72.8,63.8,29.82,North,360,0.0,1.0,73,0.00,,,2.38,WUHU216DAVISVP2,2013-07-21 02:30:00,
2013-07-20 22:31:00,72.8,63.8,29.82,North,360,0.0,1.0,73,0.00,,,2.38,WUHU216DAVISVP2,2013-07-21 02:31:00,
2013-07-20 22:32:00,72.8,63.8,29.82,North,360,0.0,0.0,73,0.00,,,2.38,WUHU216DAVISVP2,2013-07-21 02:32:00,
2013-07-20 22:34:00,72.8,63.8,29.82,North,360,0.0,0.0,73,0.00,,,2.38,WUHU216DAVISVP2,2013-07-21 02:34:00,
2013-07-20 22:35:00,72.7,63.7,29.82,North,360,0.0,0.0,73,0.00,,,2.38,WUHU216DAVISVP2,2013-07-21 02:35:00,
2013-07-20 22:36:00,72.7,63.7,29.82,North,360,0.0,0.0,73,0.00,,,2.38,WUHU216DAVISVP2,2013-07-21 02:36:00,
2013-07-20 22:37:00,72.7,63.7,29.82,North,360,0.0,0.0,73,0.00,,,2.38,WUHU216DAVISVP2,2013-07-21 02:37:00,
2013-07-20 22:39:00,72.6,63.6,29.82,North,360,0.0,0.0,73,0.00,,,2.38,WUHU216DAVISVP2,2013-07-21 02:39:00,
2013-07-20 22:41:00,72.6,64.0,29.82,North,360,0.0,0.0,74,0.00,,,2.38,WUHU216DAVISVP2,2013-07-21 02:41:00,
2013-07-20 22:42:00,72.5,63.9,29.83,North,360,0.0,0.0,74,0.00,,,2.38,WUHU216DAVISVP2,2013-07-21 02:42:00,
2013-07-20 22:45:00,72.5,63.9,29.82,North,360,0.0,0.0,74,0.00,,,2.38,WUHU216DAVISVP2,2013-07-21 02:45:00,
2013-07-20 22:46:00,72.4,64.2,29.82,North,360,0.0,0.0,75,0.00,,,2.38,WUHU216DAVISVP2,2013-07-21 02:46:00,
2013-07-20 22:47:00,72.4,64.2,29.82,North,360,0.0,0.0,75,0.00,,,2.38,WUHU216DAVISVP2,2013-07-21 02:47:00,
2013-07-20 22:48:00,72.4,63.8,29.82,North,360,0.0,0.0,74,0.00,,,2.38,WUHU216DAVISVP2,2013-07-21 02:48:00,
2013-07-20 22:50:00,72.3,64.1,29.82,North,360,0.0,0.0,75,0.00,,,2.38,WUHU216DAVISVP2,2013-07-21 02:50:00,
2013-07-20 22:52:00,72.3,64.1,29.83,North,360,0.0,0.0,75,0.00,,,2.38,WUHU216DAVISVP2,2013-07-21 02:52:00,
2013-07-20 22:53:00,72.2,64.0,29.83,North,360,0.0,0.0,75,0.00,,,2.38,WUHU216DAVISVP2,2013-07-21 02:53:00,
2013-07-20 22:54:00,72.2,64.0,29.83,North,360,0.0,0.0,75,0.00,,,2.38,WUHU216DAVISVP2,2013-07-21 02:54:00,
2013-07-20 22:56:00,72.1,63.9,29.83,North,360,0.0,0.0,75,0.00,,,2.38,WUHU216DAVISVP2,2013-07-21 02:56:00,
2013-07-20 22:57:00,72.1,63.9,29.83,North,360,0.0,0.0,75,0.00,,,2.38,WUHU216DAVISVP2,2013-07-21 02:57:00,
2013-07-20 22:59:00,72.1,63.9,29.83,North,360,0.0,0.0,75,0.00,,,2.38,WUHU216DAVISVP2,2013-07-21 02:59:00,
2013-07-20 23:00:00,72.1,63.9,29.83,North,360,0.0,0.0,75,0.00,,,2.38,WUHU216DAVISVP2,2013-07-21 03:00:00,
2013-07-20 23:02:00,72.0,63.8,29.83,North,360,0.0,0.0,75,0.00,,,2.38,WUHU216DAVISVP2,2013-07-21 03:02:00,
2013-07-20 23:04:00,72.0,63.8,29.83,North,360,0.0,0.0,75,0.00,,,2.38,WUHU216DAVISVP2,2013-07-21 03:04:00,
2013-07-20 23:05:00,71.9,64.1,29.83,North,360,0.0,0.0,76,0.00,,,2.38,WUHU216DAVISVP2,2013-07-21 03:05:00,
2013-07-20 23:07:00,71.9,64.1,29.83,North,360,0.0,0.0,76,0.00,,,2.38,WUHU216DAVISVP2,2013-07-21 03:07:00,
2013-07-20 23:08:00,71.9,64.1,29.83,North,360,0.0,0.0,76,0.00,,,2.38,WUHU216DAVISVP2,2013-07-21 03:08:00,
2013-07-20 23:10:00,71.8,64.0,29.84,North,360,0.0,0.0,76,0.00,,,2.38,WUHU216DAVISVP2,2013-07-21 03:10:00,
2013-07-20 23:11:00,71.7,63.9,29.83,North,360,0.0,0.0,76,0.00,,,2.38,WUHU216DAVISVP2,2013-07-21 03:11:00,
2013-07-20 23:13:00,71.7,63.9,29.83,North,360,0.0,0.0,76,0.00,,,2.38,WUHU216DAVISVP2,2013-07-21 03:13:00,
2013-07-20 23:16:00,71.6,63.8,29.83,North,360,0.0,0.0,76,0.00,,,2.38,WUHU216DAVISVP2,2013-07-21 03:16:00,
2013-07-20 23:18:00,71.5,63.7,29.83,North,360,0.0,0.0,76,0.00,,,2.38,WUHU216DAVISVP2,2013-07-21 03:18:00,
2013-07-20 23:20:00,71.5,64.0,29.83,North,360,0.0,0.0,77,0.00,,,2.38,WUHU216DAVISVP2,2013-07-21 03:20:00,
2013-07-20 23:21:00,71.4,63.9,29.83,North,360,0.0,0.0,77,0.00,,,2.38,WUHU216DAVISVP2,2013-07-21 03:21:00,
2013-07-20 23:23:00,71.4,63.9,29.83,North,360,0.0,0.0,77,0.00,,,2.38,WUHU216DAVISVP2,2013-07-21 03:23:00,
2013-07-20 23:25:00,71.3,63.8,29.83,North,360,0.0,0.0,77,0.00,,,2.38,WUHU216DAVISVP2,2013-07-21 03:25:00,
2013-07-20 23:26:00,71.3,63.8,29.83,North,360,0.0,0.0,77,0.00,,,2.38,WUHU216DAVISVP2,2013-07-21 03:26:00,
2013-07-20 23:28:00,71.2,63.7,29.83,North,360,0.0,0.0,77,0.00,,,2.38,WUHU216DAVISVP2,2013-07-21 03:28:00,
2013-07-20 23:30:00,71.1,64.0,29.83,North,360,0.0,0.0,78,0.00,,,2.38,WUHU216DAVISVP2,2013-07-21 03:30:00,
2013-07-20 23:31:00,71.1,64.0,29.83,North,360,0.0,0.0,78,0.00,,,2.38,WUHU216DAVISVP2,2013-07-21 03:31:00,
2013-07-20 23:33:00,71.0,63.9,29.83,North,360,0.0,0.0,78,0.00,,,2.38,WUHU216DAVISVP2,2013-07-21 03:33:00,
2013-07-20 23:35:00,70.9,63.8,29.83,North,360,0.0,0.0,78,0.00,,,2.38,WUHU216DAVISVP2,2013-07-21 03:35:00,
2013-07-20 23:37:00,70.8,63.7,29.82,North,360,0.0,0.0,78,0.00,,,2.38,WUHU216DAVISVP2,2013-07-21 03:37:00,
2013-07-20 23:38:00,70.7,63.6,29.82,North,360,0.0,0.0,78,0.00,,,2.38,WUHU216DAVISVP2,2013-07-21 03:38:00,
2013-07-20 23:39:00,70.7,63.6,29.82,North,360,0.0,0.0,78,0.00,,,2.38,WUHU216DAVISVP2,2013-07-21 03:39:00,
2013-07-20 23:40:00,70.6,63.5,29.82,North,360,0.0,0.0,78,0.00,,,2.38,WUHU216DAVISVP2,2013-07-21 03:40:00,
2013-07-20 23:42:00,70.5,63.8,29.82,North,360,0.0,0.0,79,0.00,,,2.38,WUHU216DAVISVP2,2013-07-21 03:42:00,
2013-07-20 23:44:00,70.4,63.7,29.83,North,360,0.0,0.0,79,0.00,,,2.38,WUHU216DAVISVP2,2013-07-21 03:44:00,
2013-07-20 23:45:00,70.3,63.9,29.83,North,360,0.0,0.0,80,0.00,,,2.38,WUHU216DAVISVP2,2013-07-21 03:45:00,
2013-07-20 23:47:00,70.3,64.3,29.83,North,360,0.0,0.0,81,0.00,,,2.38,WUHU216DAVISVP2,2013-07-21 03:47:00,
2013-07-20 23:49:00,70.2,64.2,29.83,North,360,0.0,0.0,81,0.00,,,2.38,WUHU216DAVISVP2,2013-07-21 03:49:00,
2013-07-20 23:50:00,70.2,64.2,29.83,North,360,0.0,0.0,81,0.00,,,2.38,WUHU216DAVISVP2,2013-07-21 03:50:00,
2013-07-20 23:52:00,70.0,64.0,29.83,North,360,0.0,0.0,81,0.00,,,2.38,WUHU216DAVISVP2,2013-07-21 03:52:00,
2013-07-20 23:54:00,70.0,64.3,29.83,North,360,0.0,0.0,82,0.00,,,2.38,WUHU216DAVISVP2,2013-07-21 03:54:00,
2013-07-20 23:55:00,69.9,64.2,29.83,North,360,0.0,0.0,82,0.00,,,2.38,WUHU216DAVISVP2,2013-07-21 03:55:00,
2013-07-20 23:56:00,69.9,64.2,29.83,North,360,0.0,0.0,82,0.00,,,2.38,WUHU216DAVISVP2,2013-07-21 03:56:00,
2013-07-20 23:57:00,69.8,64.1,29.84,North,360,0.0,0.0,82,0.00,,,2.38,WUHU216DAVISVP2,2013-07-21 03:57:00,